GFSSGP_prec_cloud_003.txt.gz
Cloud_Cover
98 93 5 24 23 5 64 0 0 0 0 0 0 3 22 0 0 4 46 38 4 100 2 0 0 2 5 4 0 0 0 0 0 0 0 1 2 0 0 0 0 0 0 0 0 0 0 0 0
54 17 5 22 16 49 0 0 0 0 0 0 0 0 0 0 0 5 98 32 75 19 3 0 0 0 0 0 0 3 2 1 0 0 0 0 0 0 0 0 0 0 0 0 0 0 0 0 0
16 2 4 5 96 65 0 0 0 0 0 0 0 0 0 0 0 0 0 0 0 0 0 0 0 0 0 0 0 0 0 0 0 0 0 0 0 0 0 0 0 0 0 0 0 0 0 0 0
5 1 0 4 4 5 2 0 0 0 0 0 0 0 0 0 0 0 0 0 0 0 0 0 0 0 0 0 0 0 0 0 0 0 0 0 0 0 0 0 0 0 0 4 0 0 0 0 0
5 2 0 0 0 0 0 2 0 0 0 0 0 0 0 0 0 0 0 0 0 0 0 0 0 0 4 0 0 0 0 0 0 0 0 0 0 0 0 0 0 0 0 0 0 0 0 0 0
5 4 4 5 0 1 5 4 5 5 0 0 0 0 0 0 0 0 0 0 0 0 0 0 1 1 0 0 0 0 0 0 0 0 0 0 0 0 0 0 0 0 0 0 0 0 0 0 0
27 8 48 9 10 5 5 7 10 2 0 0 0 0 0 0 0 0 0 0 0 0 0 0 0 0 0 0 0 0 0 0 0 0 0 0 0 0 0 0 0 0 0 0 0 0 0 0 0
100 100 100 11 5 24 8 6 5 5 0 0 0 0 0 0 0 0 0 0 0 0 0 0 0 0 0 0 0 0 0 0 0 0 0 0 0 0 0 0 0 0 0 0 0 0 0 0 0
70 89 52 19 5 5 2 5 5 1 0 0 0 0 0 0 0 0 0 0 0 0 0 0 0 0 0 0 0 0 0 0 0 0 0 0 0 0 0 0 0 0 0 0 0 0 0 0 0
5 21 7 5 5 5 18 9 5 4 0 0 0 0 0 0 0 0 0 0 0 0 0 0 0 0 0 0 0 0 0 0 0 0 0 0 0 0 0 0 0 0 0 0 0 0 0 0 0
5 5 4 5 5 5 58 7 5 0 0 0 0 0 0 0 0 0 0 0 0 0 0 0 0 0 0 0 0 0 0 0 0 0 0 0 0 0 0 0 0 0 0 0 0 0 0 0 0
5 5 17 6 18 5 7 4 0 0 0 0 0 0 0 0 0 0 0 0 0 0 0 0 0 0 0 0 0 0 0 0 0 0 0 0 0 0 0 0 0 0 0 0 0 0 0 0 0
100 53 53 5 5 3 0 2 3 0 0 0 0 0 0 0 0 0 0 0 0 0 0 0 0 0 0 0 0 0 0 0 0 0 0 0 0 0 0 0 0 0 0 0 0 0 0 0 0
20 14 48 4 0 0 1 5 4 0 0 0 0 0 0 0 0 0 0 0 0 0 0 0 0 0 0 0 0 0 0 0 0 0 0 0 0 0 0 0 0 0 0 0 0 0 0 0 0
0 0 5 0 0 3 0 5 0 0 0 0 0 0 0 0 0 0 0 0 0 0 0 0 0 0 0 0 0 0 0 0 0 0 0 0 0 0 0 0 0 0 0 0 0 0 0 0 0
0 0 0 0 0 0 0 0 0 0 0 0 0 0 0 0 0 0 0 0 0 0 0 0 0 0 0 0 0 0 0 0 0 0 0 0 0 0 0 0 0 0 0 0 0 0 0 0 0
0 0 0 0 0 0 0 0 0 0 0 0 0 0 0 0 0 0 0 0 0 0 0 0 0 0 0 0 0 0 0 0 0 0 0 0 0 0 0 0 0 0 0 0 0 0 0 0 0
0 0 0 0 0 0 0 0 0 0 0 0 0 0 3 0 0 0 3 0 0 0 0 0 0 0 0 0 0 0 0 0 0 0 0 0 0 0 0 0 0 0 0 0 0 0 0 0 0
0 0 0 0 0 0 0 0 0 5 5 5 0 0 0 0 0 0 1 0 3 0 0 0 0 0 0 0 0 0 0 0 0 0 0 0 0 0 0 0 0 0 0 0 0 0 0 0 0
0 0 0 0 0 0 4 19 2 0 5 5 3 0 2 5 0 0 0 5 5 1 0 0 0 0 0 0 0 0 0 0 0 0 0 0 0 0 0 0 0 0 0 0 0 0 0 0 0
0 0 0 0 0 5 3 4 5 5 3 5 10 5 4 0 0 0 4 75 5 0 0 0 0 0 0 0 0 0 0 0 0 0 0 0 0 0 0 0 0 0 0 0 0 0 0 0 0
5 5 1 0 0 0 0 0 5 72 25 65 84 5 5 0 0 2 38 60 5 0 0 0 0 0 0 0 0 0 0 0 0 0 0 0 0 0 0 0 0 0 0 0 0 0 0 0 0
8 10 10 8 21 10 73 2 5 78 81 41 5 5 18 2 0 0 0 0 0 0 0 0 0 0 0 0 0 0 0 0 0 0 0 0 0 0 0 0 0 0 0 0 0 0 0 0 0
100 100 100 100 46 2 13 9 4 58 95 5 82 98 92 4 0 0 0 0 0 0 0 0 0 0 0 0 0 0 0 0 0 0 0 0 0 0 0 0 0 0 0 0 0 0 0 0 0
100 34 10 5 7 3 79 7 0 56 26 1 24 79 52 6 0 0 0 0 0 0 0 0 0 0 0 0 0 0 0 0 0 0 0 3 0 0 0 0 0 0 0 0 0 0 0 0 0
20 12 2 5 3 0 0 0 0 0 1 0 0 0 0 0 0 0 0 0 0 0 0 0 0 0 0 0 0 0 0 0 0 0 2 2 0 0 0 0 0 0 0 0 0 0 0 0 0
0 0 2 0 0 0 0 0 0 0 0 0 0 0 0 0 0 0 0 0 0 0 0 0 0 0 0 0 0 0 0 0 0 0 4 0 0 0 0 0 0 0 0 0 0 0 0 0 5
0 0 0 0 0 0 0 0 0 0 0 0 0 0 0 0 0 0 0 0 0 0 0 0 0 0 0 0 0 0 0 0 0 0 2 0 0 0 0 0 0 0 0 0 0 0 2 2 0
0 0 0 0 0 0 0 0 0 2 8 0 0 0 0 0 0 0 0 0 0 0 0 0 0 0 0 0 0 0 0 0 0 0 5 0 0 0 0 0 0 0 0 0 0 0 0 1 5
0 0 0 0 0 0 0 1 7 91 1 0 0 0 0 0 0 0 0 0 0 0 0 0 0 0 0 0 0 0 0 0 0 0 5 0 0 0 0 0 0 0 0 0 0 0 2 5 9

GFSSGP_prec_cloud_006.txt.gz
Cloud_Cover
0 3 6 48 2 55 18 5 5 5 5 5 4 1 0 0 0 0 0 10 72 87 5 5 5 5 5 5 5 0 0 0 0 1 0 0 0 0 0 1 1 0 0 0 0 0 0 0 0
0 4 7 71 35 5 3 5 5 5 3 5 0 0 0 0 3 0 0 0 11 32 2 4 5 3 1 5 3 4 0 0 0 0 0 0 0 0 0 0 20 3 6 1 0 0 0 0 0
0 4 29 29 36 15 0 0 0 0 0 0 3 5 5 0 0 0 0 0 0 0 0 0 0 0 0 1 0 0 0 0 0 0 0 0 0 0 0 0 0 34 18 10 4 0 0 0 0
0 2 4 12 5 0 0 0 0 0 0 0 0 0 0 0 0 0 0 0 8 14 0 0 0 0 0 0 0 0 0 0 0 0 0 0 0 0 0 0 0 0 0 0 10 7 0 0 0
0 0 0 0 0 0 0 0 4 0 0 0 0 0 0 0 0 0 0 0 2 9 0 0 0 0 0 0 0 0 0 0 0 0 0 0 0 0 0 0 0 0 0 0 0 0 17 27 0
2 2 0 3 0 0 0 0 0 0 2 5 0 0 0 0 0 0 0 0 0 1 0 0 10 2 0 0 0 0 0 0 0 0 0 0 0 0 0 0 0 0 0 0 0 0 0 4 20
5 5 2 3 5 5 2 5 5 5 5 5 0 0 0 0 0 0 0 0 0 0 0 1 0 0 0 0 0 0 0 0 0 0 0 0 0 0 0 0 0 0 0 0 0 0 0 0 0
11 93 41 65 7 6 19 75 6 29 5 2 0 0 0 0 0 0 0 0 0 0 0 0 0 0 0 0 0 0 0 0 0 0 0 0 0 0 0 0 0 0 0 0 0 0 2 0 0
57 100 100 100 37 87 100 98 19 5 5 0 4 1 0 0 0 0 0 0 0 0 0 0 0 0 0 0 0 0 0 0 0 0 0 0 0 0 0 0 0 0 0 0 0 0 0 0 0
100 98 100 100 100 100 100 58 20 5 5 5 5 5 1 0 0 0 0 0 0 0 0 0 0 0 0 0 0 0 0 0 0 0 0 0 0 0 0 0 0 0 0 0 0 0 0 0 0
91 100 53 38 10 7 74 98 26 5 5 5 5 5 0 0 0 0 0 0 0 0 0 0 0 0 0 0 0 0 0 0 0 0 0 0 0 0 0 0 0 0 0 0 0 0 0 0 0
13 2 0 3 5 4 3 5 50 5 0 3 4 0 0 0 0 0 0 0 0 0 0 0 0 0 0 0 0 0 0 0 0 0 0 0 0 0 0 0 0 0 0 0 0 0 0 0 0
13 5 4 6 5 1 4 5 24 49 0 1 0 0 0 0 0 0 0 0 0 0 0 0 0 0 0 0 0 0 0 0 0 0 0 0 0 0 0 0 0 0 0 0 0 0 0 0 0
27 75 31 1 4 40 12 27 20 3 38 0 0 0 0 0 0 0 0 0 0 0 0 0 0 0 0 0 0 0 0 0 0 0 0 0 0 0 0 0 0 0 0 0 0 0 0 0 0
0 0 0 2 12 88 49 100 6 0 4 0 0 0 0 0 0 0 0 0 0 0 0 0 0 0 0 0 0 0 0 0 0 0 0 0 0 0 0 0 0 0 0 0 0 0 0 0 0
0 0 0 0 0 0 0 5 0 0 0 0 0 0 0 0 0 0 0 0 0 0 0 0 0 0 0 0 0 0 0 0 0 0 0 0 0 0 0 0 0 0 0 0 0 0 0 0 0
0 0 0 0 0 0 0 0 0 0 0 0 0 0 0 0 0 0 0 0 0 0 0 0 0 2 5 0 0 0 0 0 0 0 0 0 0 0 0 0 0 0 0 0 0 0 0 0 0
0 1 3 0 0 0 0 0 0 0 0 0 0 0 0 0 0 0 0 0 5 3 0 0 3 5 5 0 0 0 0 0 0 0 0 0 0 0 0 0 0 0 0 0 0 0 0 0 0
0 0 0 0 0 0 0 0 0 0 0 0 0 0 0 0 0 0 0 2 47 4 0 4 5 8 5 0 0 0 0 0 0 0 0 0 0 0 0 0 0 0 0 0 0 0 0 0 0
0 0 1 1 0 0 0 0 0 0 0 0 0 0 0 0 1 0 1 33 5 5 0 5 9 3 0 0 0 0 0 0 0 0 0 0 0 0 0 0 0 0 0 0 0 0 0 0 0
0 0 0 0 0 0 0 2 4 3 5 5 4 0 4 4 4 5 16 8 8 4 0 5 5 0 0 0 0 0 0 0 0 0 0 0 0 0 0 0 0 0 0 0 0 0 0 0 0
0 1 0 0 0 0 0 0 0 6 15 86 82 5 4 5 5 9 6 5 5 0 0 5 0 0 0 0 0 0 0 0 0 0 0 0 0 0 0 0 0 0 0 0 0 0 0 0 0
7 36 16 10 0 0 2 3 59 74 91 39 5 5 26 30 5 5 5 5 5 5 5 1 0 0 0 0 0 0 0 0 0 0 0 0 0 0 0 0 0 0 0 0 0 0 0 0 0
31 56 52 12 2 0 5 0 0 0 4 26 5 0 1 6 5 2 0 4 5 10 3 0 0 0 0 0 0 0 0 0 0 0 0 0 0 0 0 0 0 0 0 0 0 0 0 0 0
100 100 92 21 5 2 5 4 0 65 66 5 19 17 50 22 45 5 0 0 0 0 0 0 0 0 0 0 0 0 0 0 0 0 0 0 0 0 0 0 0 0 0 0 0 0 0 0 0
32 97 93 97 78 15 51 1 31 100 100 100 100 34 70 34 2 0 0 0 0 0 0 0 0 0 0 0 0 0 0 0 0 0 0 0 0 0 0 0 0 0 0 0 0 0 0 0 0
0 0 0 0 0 0 0 0 0 0 0 2 3 0 0 0 0 0 0 0 0 0 0 0 0 0 0 0 0 0 0 0 0 0 0 0 0 0 0 0 0 0 0 0 0 0 0 0 0
0 0 0 0 0 0 0 0 0 0 4 0 0 0 0 0 0 0 0 0 0 0 0 0 0 0 0 0 0 0 0 0 0 0 0 0 0 0 0 0 0 0 0 0 0 0 0 0 0
0 0 0 1 0 0 0 0 0 0 0 0 0 0 0 0 0 0 0 0 0 0 0 0 0 0 0 0 0 0 0 0 0 0 0 0 0 0 0 0 2 0 0 0 0 0 0 0 0
0 2 20 98 2 5 3 0 0 0 0 0 0 0 0 0 0 0 0 0 0 0 0 0 0 0 0 0 0 0 0 0 0 0 0 0 0 0 0 1 5 0 0 0 0 0 0 0 0

GFSSGP_prec_cloud_012.txt.gz
Cloud_Cover
72 64 65 32 5 5 5 5 5 5 5 5 5 5 5 5 5 2 4 5 5 5 5 5 5 5 5 5 6 5 5 22 77 78 8 23 98 99 5 28 10 10 6 6 12 14 0 0 0
5 38 28 5 4 5 5 4 5 4 5 5 5 5 5 5 5 5 5 5 5 4 5 5 5 5 5 6 9 5 5 0 8 0 0 0 0 0 50 76 99 83 36 17 6 3 0 0 0
5 5 4 4 5 4 4 5 0 1 5 5 5 5 5 5 5 5 5 5 5 5 5 5 6 5 5 5 5 5 0 0 0 0 0 0 0 0 0 0 2 8 3 25 19 0 4 0 0
4 2 4 4 5 4 1 5 58 11 4 5 4 5 5 5 5 5 5 5 6 14 3 5 9 5 5 5 4 4 0 0 0 0 0 0 11 0 0 0 0 0 0 0 15 31 30 15 0
0 0 1 2 2 1 0 0 42 44 7 5 5 4 1 4 2 1 26 11 22 42 5 5 6 12 4 4 0 0 0 0 11 0 0 0 0 0 0 0 0 0 11 0 10 0 7 46 21
0 0 0 0 0 0 0 0 0 5 4 0 0 0 0 0 5 5 19 24 19 29 4 0 7 1 0 0 0 0 0 0 0 0 0 0 0 0 0 0 0 0 0 16 42 17 0 24 72
0 5 1 0 2 0 0 0 0 1 0 2 5 5 4 5 9 5 12 21 34 20 14 2 25 0 0 0 0 0 0 0 0 0 0 0 0 0 0 0 0 0 0 0 0 0 0 0 1
0 0 0 0 3 5 4 0 0 0 0 1 5 18 34 6 5 5 12 59 100 61 18 14 0 0 0 0 0 0 0 0 0 0 0 0 0 0 0 0 0 0 0 0 0 0 0 0 0
1 0 0 0 5 5 10 4 5 5 5 5 52 100 98 92 72 5 51 100 100 100 55 31 0 0 0 0 0 0 0 0 0 0 0 0 0 0 0 0 0 0 0 0 0 0 0 0 0
5 0 0 1 5 4 8 7 5 59 55 30 100 100 100 98 8 5 10 100 100 58 11 0 0 0 0 0 0 0 0 0 0 0 0 0 0 0 0 0 0 0 0 0 0 0 0 0 0
5 1 0 1 2 2 40 5 28 6 14 100 100 100 100 73 5 5 5 6 9 4 1 0 0 0 0 0 0 0 0 0 0 0 0 0 0 0 0 0 0 0 0 0 0 0 0 0 0
5 9 5 42 4 83 100 100 100 100 100 100 100 100 98 8 5 5 5 5 5 5 0 0 0 0 0 0 0 0 0 0 0 0 0 0 0 0 0 0 0 0 0 0 0 0 0 0 0
40 100 100 100 100 100 100 96 100 78 97 100 100 19 5 18 29 5 39 5 6 0 0 0 0 0 0 0 0 0 0 0 0 0 0 0 0 0 0 0 0 0 0 0 0 0 0 0 0
38 100 100 100 100 100 100 100 100 32 2 49 22 4 6 27 4 80 11 5 0 0 0 0 0 0 0 0 0 0 0 0 0 0 0 0 0 0 0 0 0 0 0 0 0 0 0 0 0
2 79 13 14 42 58 99 100 100 2 39 94 6 35 78 5 0 0 0 0 0 0 0 0 0 0 0 0 0 0 0 0 0 0 0 0 0 0 0 0 0 0 0 0 0 0 0 0 0
0 0 0 0 0 0 0 8 4 0 0 0 14 43 3 0 0 0 0 0 0 0 0 0 0 0 0 0 0 0 4 5 0 0 0 0 0 0 0 0 0 0 0 0 0 0 0 0 0
0 0 0 0 0 0 0 0 5 0 0 0 0 0 0 0 0 0 0 0 0 0 0 0 0 0 0 0 0 1 5 5 5 5 5 5 3 0 0 0 0 0 0 0 0 0 0 0 0
0 0 0 0 0 0 0 0 0 0 0 0 0 0 0 0 0 3 0 0 0 0 0 0 0 0 0 0 0 5 5 5 5 5 11 45 5 0 0 0 0 0 0 0 0 0 0 0 0
0 0 0 0 0 0 0 0 0 2 2 1 0 0 0 0 0 0 0 0 0 0 0 0 0 0 0 0 1 5 5 5 5 5 73 68 5 0 0 0 0 0 0 0 0 0 0 0 0
0 0 0 0 0 0 0 0 0 1 4 2 1 4 0 0 0 0 0 0 0 3 5 1 0 0 1 5 0 19 5 5 5 58 51 8 0 0 0 0 0 0 0 0 0 0 0 0 0
0 0 0 0 0 0 0 0 0 0 0 0 0 0 0 0 0 0 0 5 4 5 2 4 5 5 5 5 7 39 5 8 90 8 0 0 0 0 0 0 0 0 0 0 0 0 0 0 0
0 0 0 0 0 0 0 0 0 0 0 4 5 5 0 0 0 0 0 0 0 5 5 5 5 5 5 5 7 35 32 98 10 0 0 0 0 0 0 0 0 0 0 0 0 0 0 0 0
0 0 0 0 0 0 0 0 0 5 5 82 5 5 4 4 0 0 0 0 0 3 5 5 5 5 5 5 86 91 99 94 0 0 0 0 0 0 0 0 0 0 0 0 0 0 0 0 0
1 0 3 5 3 0 11 2 0 84 0 5 6 96 85 30 4 0 5 22 92 97 35 5 5 5 39 100 100 100 96 3 0 0 0 0 0 0 0 0 0 0 0 0 0 0 0 0 0
0 0 0 0 0 0 0 0 0 74 36 4 4 37 99 91 64 2 5 5 5 2 2 2 5 39 93 100 96 24 0 0 0 0 0 0 0 0 0 0 0 0 0 0 0 0 0 0 0
0 0 0 0 0 0 0 0 0 0 3 0 0 0 1 26 52 4 0 0 0 0 0 0 0 0 0 0 0 0 0 0 0 0 0 0 0 0 0 0 0 0 0 0 0 0 0 0 0
0 0 0 0 0 3 0 0 0 0 3 5 0 0 0 0 0 0 0 0 0 0 0 0 0 0 0 0 0 0 0 0 0 0 0 0 0 0 0 0 0 0 0 0 0 0 0 0 0
0 0 8 33 67 5 2 0 0 0 0 0 0 0 0 0 0 0 0 0 0 0 0 0 0 0 0 0 0 0 0 0 0 0 0 0 0 0 0 0 0 0 0 0 0 0 0 0 0
24 23 8 51 89 100 94 13 0 0 0 0 0 0 0 0 1 0 0 0 0 0 0 0 0 0 0 0 0 0 0 0 0 0 0 0 0 0 0 0 0 0 0 0 0 0 0 0 0
0 0 44 100 98 100 100 70 0 2 5 5 0 0 0 0 0 0 0 0 0 0 0 0 0 0 0 0 0 0 0 0 0 0 0 0 0 0 0 0 0 0 0 0 0 0 0 0 0

GFSSGP_prec_cloud_015.txt.gz
Cloud_Cover
80 62 30 40 8 5 5 5 5 5 5 5 5 5 5 5 5 5 5 5 5 5 5 5 5 5 5 73 5 12 6 67 100 96 4 95 100 81 90 86 79 49 11 2 12 15 7 13 0
64 96 91 97 5 5 5 5 5 6 5 5 5 5 5 5 5 5 2 2 4 5 2 2 4 56 5 13 10 8 0 30 10 1 0 0 2 5 13 58 100 89 68 16 4 3 0 0 0
55 76 52 76 5 5 23 5 5 0 2 0 0 5 3 5 5 5 4 0 0 0 0 0 5 5 5 14 4 0 1 1 0 0 0 0 0 0 0 1 2 2 18 35 33 18 6 0 0
5 5 5 5 5 5 3 1 5 1 0 5 5 5 4 3 4 0 2 0 0 4 0 1 5 3 5 6 7 0 1 2 0 0 1 0 0 0 0 3 0 1 0 12 15 38 34 15 8
1 0 0 0 5 0 0 0 0 0 0 0 23 6 5 0 0 0 0 0 0 5 5 0 5 11 5 10 0 0 0 15 0 0 0 0 0 0 0 0 0 0 7 21 18 0 100 77 67
5 0 0 0 0 0 0 0 0 0 0 0 0 0 0 0 0 0 0 0 1 5 2 0 2 7 0 0 0 0 0 0 0 0 0 0 0 0 0 0 0 0 0 3 0 0 11 45 93
5 0 1 0 0 0 0 0 0 0 0 0 0 0 0 0 0 5 5 5 5 5 4 13 48 1 0 0 0 0 0 0 0 0 0 0 0 0 0 0 0 0 0 0 0 0 0 0 1
6 1 0 5 5 5 5 4 5 5 5 5 4 5 4 0 3 5 5 51 76 22 30 43 12 0 0 0 0 0 0 0 0 0 0 0 0 0 0 0 0 0 0 0 0 0 0 0 0
10 5 5 5 5 26 5 5 5 5 39 13 5 14 7 5 7 42 98 100 84 98 68 37 2 0 0 0 0 0 0 0 0 0 0 0 0 0 0 0 0 0 0 0 0 0 0 0 0
5 5 6 6 12 90 18 5 5 5 13 65 81 27 6 27 82 100 100 83 100 100 98 34 0 0 0 0 0 0 0 0 0 0 0 0 0 0 0 0 0 0 0 0 0 0 0 0 0
5 3 5 5 5 8 5 5 5 5 5 5 4 5 5 82 100 100 100 19 10 61 100 84 0 0 0 0 0 0 0 0 0 0 0 0 0 0 0 0 0 0 0 0 0 0 0 0 0
5 17 12 5 5 5 5 5 5 1 2 53 99 100 100 100 100 99 11 5 3 72 79 36 0 0 0 0 0 0 0 0 0 0 0 0 0 0 0 0 0 0 0 0 0 0 0 0 0
0 8 9 5 5 5 5 12 37 19 2 83 100 100 100 67 7 20 5 5 5 8 5 0 0 0 0 0 0 0 0 0 0 0 0 0 0 0 0 0 0 0 0 0 0 0 0 0 0
0 0 3 5 5 5 69 100 100 96 5 96 93 88 84 85 31 83 5 5 5 4 0 0 0 0 0 0 0 0 0 0 0 0 0 0 0 0 0 5 2 0 0 0 0 0 0 0 0
0 0 0 0 0 0 5 100 100 77 65 100 100 38 15 61 5 5 5 12 5 0 0 0 0 0 0 0 0 0 0 0 0 0 0 0 4 5 5 5 4 0 0 0 0 0 0 0 0
0 0 0 0 2 35 96 100 100 95 97 100 100 100 97 71 42 7 5 0 0 0 0 0 0 0 0 0 0 0 0 0 0 0 0 5 5 6 25 13 5 0 0 0 0 0 0 0 0
0 0 0 0 0 0 0 81 0 0 3 4 4 4 44 42 10 5 0 0 0 0 0 0 0 0 0 0 0 0 0 0 0 0 0 5 5 68 100 13 0 0 0 0 0 0 0 0 0
0 0 0 0 0 0 0 15 2 0 0 5 5 0 0 0 2 0 0 0 0 0 0 0 0 0 0 0 0 0 0 0 0 2 0 5 9 90 100 6 0 0 0 0 0 0 0 0 0
0 0 0 0 0 0 0 4 5 0 0 0 0 0 0 0 0 0 0 0 0 0 0 0 0 0 0 0 0 0 0 0 1 4 1 5 6 99 73 0 0 0 0 0 0 0 0 0 0
0 0 0 0 0 0 0 0 0 4 1 5 1 0 0 0 0 0 0 0 0 0 0 0 0 0 0 0 0 0 0 0 0 5 5 5 63 99 44 0 0 0 0 0 0 0 0 0 0
0 0 0 0 0 0 0 1 0 2 5 0 1 0 0 0 0 0 0 0 0 0 0 0 0 0 0 0 0 0 0 0 4 4 5 44 100 46 2 0 0 0 0 0 0 0 0 0 0
0 0 0 0 0 0 0 0 47 5 5 0 1 0 0 0 0 0 0 0 0 0 0 0 0 0 0 0 0 0 0 3 5 4 22 97 86 1 0 0 0 0 0 0 0 0 0 0 0
0 3 5 5 5 0 0 0 0 98 8 5 0 0 4 0 4 0 0 0 0 0 0 0 0 0 0 0 0 0 5 5 5 5 96 35 0 0 0 0 0 0 0 0 0 0 0 0 0
0 0 0 0 0 0 0 0 0 99 32 18 5 5 29 5 4 1 1 1 1 1 1 2 0 3 0 0 0 0 0 0 0 0 2 0 0 0 0 0 0 0 0 0 0 0 0 0 0
0 0 0 0 0 0 0 0 0 2 7 5 4 2 11 89 83 94 32 2 5 2 0 0 0 0 0 0 0 0 0 0 0 0 0 0 0 0 0 0 0 0 0 0 0 0 0 0 0
0 0 0 0 0 0 0 0 0 0 3 5 4 0 0 0 0 0 0 0 0 0 0 0 0 0 0 0 0 0 0 0 0 0 0 0 0 0 0 0 0 0 0 0 0 0 0 0 0
0 0 1 3 0 4 0 0 0 0 0 0 0 0 0 0 0 0 0 0 0 0 0 0 0 0 0 0 0 0 0 0 0 0 0 0 0 0 0 0 0 0 0 0 0 0 0 0 0
4 0 2 5 6 5 0 0 0 0 0 0 0 0 0 0 0 0 0 0 0 0 0 0 0 0 0 0 0 0 0 0 0 0 0 0 0 0 0 0 0 0 0 0 0 0 0 0 0
0 0 0 1 0 6 18 12 13 67 81 58 28 70 6 0 0 0 0 0 0 0 0 0 0 0 0 0 0 0 0 0 0 0 0 0 0 0 0 0 0 0 0 0 0 0 0 0 0
5 52 100 100 12 62 100 75 0 0 34 100 100 100 83 72 2 2 5 1 0 0 0 0 0 0 0 0 0 0 0 0 0 0 0 0 0 0 0 0 0 0 0 0 0 0 0 0 0

GFSSGP_prec_cloud_018.txt.gz
Cloud_Cover
100 6 5 5 37 5 15 5 5 5 4 4 5 5 5 5 5 5 5 5 5 5 5 5 5 5 6 5 14 5 8 70 92 2 0 70 8 70 93 96 2 63 35 6 37 17 10 2 3
83 73 35 8 18 100 70 5 5 4 2 4 5 5 5 5 5 5 0 0 3 4 0 0 2 43 1 13 16 0 4 28 0 0 0 0 0 0 4 16 22 44 42 20 19 8 2 16 7
14 39 73 56 19 46 44 5 8 6 5 2 5 5 2 5 5 5 0 0 0 0 0 0 1 48 62 2 0 0 0 0 0 0 0 0 0 0 0 0 0 15 20 36 38 26 9 11 4
40 28 29 56 63 32 6 5 5 49 5 0 5 2 0 0 5 5 0 0 8 0 0 0 4 50 52 0 1 0 0 0 0 1 1 0 0 0 3 3 2 9 38 4 0 68 41 24 22
5 41 13 32 44 38 50 10 5 5 5 0 0 0 0 0 0 0 0 0 6 0 0 5 15 4 13 0 0 0 7 0 0 0 0 0 0 0 0 0 0 4 20 0 6 50 4 27 17
1 4 47 33 6 1 2 5 5 5 4 5 0 0 0 0 0 0 0 0 0 0 3 24 6 11 21 0 0 0 8 0 0 0 0 0 0 0 0 0 0 0 0 0 0 3 45 75 96
45 5 4 5 5 2 3 4 1 0 0 0 0 0 4 0 4 0 0 0 0 1 32 47 32 88 0 0 0 0 0 0 0 0 0 0 0 0 0 0 0 0 0 0 0 0 0 0 3
45 5 3 5 5 5 5 13 50 9 5 5 3 4 5 5 2 0 0 0 0 5 74 94 4 88 17 0 0 0 0 0 0 0 0 0 0 0 0 0 0 0 0 0 0 0 0 0 0
100 72 5 28 5 9 5 5 38 5 5 5 5 5 4 5 4 1 0 0 1 19 100 28 5 0 0 0 0 0 0 0 0 0 0 0 0 0 0 0 0 0 0 0 0 0 0 0 0
100 76 44 34 47 64 10 5 31 5 5 14 5 0 5 5 4 0 0 0 11 85 99 22 3 0 0 0 0 0 0 0 0 0 0 0 0 0 0 0 0 0 0 0 0 0 0 0 0
48 69 100 100 49 8 5 5 5 6 5 36 5 5 0 1 0 0 13 77 99 100 93 5 0 2 3 0 0 0 0 0 0 0 0 0 0 0 0 0 0 0 0 0 0 0 0 0 0
15 47 90 58 52 55 36 7 5 5 4 5 5 5 5 6 100 100 100 100 91 12 5 1 1 5 0 0 0 0 0 0 0 0 0 0 0 0 0 0 0 5 0 0 0 0 0 0 0
3 11 13 49 37 5 34 24 36 36 1 67 33 5 17 22 97 100 100 75 43 92 54 5 5 0 0 0 0 0 0 0 0 0 0 0 0 0 0 0 0 3 5 3 0 0 0 0 0
0 0 3 5 5 12 97 99 97 32 5 22 100 100 100 100 100 100 100 100 100 51 5 5 0 0 0 0 0 0 0 0 0 0 0 0 0 0 0 0 0 5 5 5 0 0 0 0 0
0 0 0 1 0 5 67 10 5 4 5 5 10 100 100 100 100 100 100 37 8 0 4 0 0 0 0 0 0 0 0 0 0 0 0 0 0 0 0 0 0 5 8 5 0 0 0 0 0
0 0 0 0 0 0 3 12 1 1 3 3 16 100 100 100 100 92 11 6 4 0 0 0 0 0 0 0 0 0 0 0 0 0 0 0 0 0 0 0 0 5 73 5 0 0 0 0 0
0 0 0 0 0 0 0 14 0 0 4 5 5 12 64 19 0 0 0 0 0 0 0 0 0 0 0 0 0 0 0 0 0 0 0 0 0 0 0 0 1 6 68 3 0 0 0 0 0
0 0 0 0 0 0 0 3 1 0 0 5 5 5 0 0 0 0 0 0 0 0 0 0 0 0 0 0 0 0 0 0 0 0 0 0 0 0 0 0 1 38 81 3 0 0 0 0 0
0 0 0 0 0 0 0 1 11 0 0 0 0 0 0 0 0 0 0 0 0 0 0 0 0 0 0 0 0 0 0 0 0 0 0 0 0 0 0 0 3 93 37 0 0 0 0 0 0
0 0 0 0 0 0 0 0 5 35 5 3 1 1 0 0 0 0 0 0 0 0 0 0 0 0 0 0 0 0 0 0 0 0 0 0 0 1 5 1 24 100 5 0 0 0 0 0 0
0 0 0 0 0 0 0 2 6 5 31 4 0 0 0 0 0 0 0 0 0 0 0 0 0 0 0 0 0 0 0 0 0 0 0 0 4 5 5 20 80 8 0 0 0 0 0 0 0
0 0 0 0 0 0 0 6 98 78 88 98 5 0 0 5 0 0 0 0 0 0 0 0 0 0 0 0 0 0 0 0 0 0 1 2 5 5 5 10 4 0 0 0 0 0 0 0 0
0 0 0 0 0 0 0 0 62 100 93 96 43 50 18 51 25 7 2 0 0 0 0 0 0 0 0 0 0 0 0 0 4 3 1 0 0 0 0 0 0 0 0 0 0 0 0 0 0
0 0 0 0 0 0 0 0 8 93 100 44 30 86 100 94 98 100 100 100 55 6 5 4 4 2 2 1 1 4 5 0 0 0 0 0 0 0 0 0 0 0 0 0 0 0 0 0 0
0 0 0 0 0 0 0 0 0 0 0 3 1 0 0 2 2 2 5 28 49 49 6 4 1 1 1 0 0 0 0 0 0 0 0 0 0 0 0 0 0 0 0 0 0 0 0 0 0
0 0 0 0 0 0 0 0 0 0 0 0 0 0 0 0 0 0 0 0 0 0 0 0 0 0 0 0 0 0 0 0 0 0 0 0 0 0 0 0 0 0 0 0 0 0 0 0 0
0 1 0 4 0 0 0 0 0 0 0 0 0 0 0 0 0 0 0 0 0 0 0 0 0 0 0 0 0 0 0 0 0 0 0 0 0 0 0 0 0 0 0 0 0 0 0 0 0
0 0 0 0 0 0 0 0 0 0 0 0 0 0 0 0 0 0 0 0 0 0 0 0 0 0 0 0 0 0 0 0 0 0 0 0 0 0 0 0 0 0 0 0 0 0 0 0 0
0 0 5 4 3 2 13 0 0 0 0 1 6 69 75 89 70 10 3 0 0 0 0 0 0 0 0 0 0 0 0 0 0 0 0 0 0 0 0 0 0 0 0 0 0 0 0 0 0
4 33 51 99 4 3 5 0 0 0 0 0 0 45 5 4 91 97 90 95 5 0 0 0 0 0 0 0 0 0 0 0 0 0 0 0 0 0 0 0 0 0 0 0 0 0 0 0 0

GFSSGP_prec_cloud_021.txt.gz
Cloud_Cover
5 64 75 92 12 66 100 76 5 11 5 3 4 2 5 5 5 5 0 1 1 5 5 5 13 5 14 6 13 0 0 1 0 0 0 0 0 0 0 0 10 55 41 14 9 10 10 2 4
18 81 38 28 48 100 100 81 41 37 5 5 4 4 5 0 0 0 0 0 0 5 5 5 4 0 0 14 6 8 0 0 0 0 0 0 0 0 0 0 0 1 10 89 26 6 9 6 0
6 14 91 92 74 91 100 38 22 30 5 5 5 5 3 0 0 0 0 0 0 0 0 0 0 1 10 5 0 0 0 0 0 0 0 0 0 0 0 4 7 45 46 4 51 82 17 9 2
63 12 9 100 65 100 17 70 5 64 73 6 5 0 0 0 0 0 0 0 0 7 2 0 0 52 11 5 0 0 0 0 0 2 0 0 0 0 0 0 4 48 0 17 100 46 53 22 20
59 24 7 43 91 58 96 88 28 97 46 5 5 0 0 0 0 0 0 0 0 4 22 0 0 0 5 5 0 0 0 0 0 0 0 0 0 0 0 0 0 6 0 0 26 85 87 29 10
85 46 5 6 8 32 94 97 74 20 10 3 0 0 0 0 0 0 0 0 0 0 6 1 3 14 76 48 5 2 0 0 0 0 0 0 0 0 0 0 0 0 0 0 0 6 23 97 69
88 98 20 10 16 5 47 71 99 8 5 5 5 2 0 0 0 0 0 0 0 0 0 0 5 52 58 90 5 4 0 0 0 0 0 0 0 0 0 0 0 0 0 0 0 0 0 3 31
100 74 8 68 92 49 7 5 33 5 5 0 5 19 7 5 5 5 5 3 0 0 0 0 0 88 81 99 6 0 0 0 0 0 0 0 0 0 0 0 0 0 0 0 0 0 0 0 0
100 100 26 70 75 73 26 5 11 5 5 5 5 53 9 5 8 5 5 3 0 0 0 0 0 21 100 68 1 0 0 0 0 0 0 0 0 0 0 0 0 0 0 0 0 0 0 0 0
100 70 87 100 98 94 39 5 31 6 44 25 82 40 5 5 18 5 4 4 0 0 0 21 100 100 40 7 5 0 0 0 0 0 0 0 0 0 0 0 0 0 0 0 4 4 0 0 0
72 96 94 45 100 100 86 37 68 41 5 36 20 78 34 5 5 5 4 4 0 24 100 100 100 86 7 5 0 0 0 0 0 0 0 0 0 0 0 0 0 0 0 0 5 39 3 0 0
48 23 92 91 85 97 100 100 100 98 4 8 82 76 16 5 5 0 0 5 5 5 100 100 99 30 5 4 0 0 0 0 0 0 0 0 0 0 0 0 0 0 0 0 5 81 5 0 0
12 31 5 15 66 100 100 100 100 16 5 5 26 5 5 5 6 14 54 54 61 100 49 5 34 100 6 5 0 0 0 0 0 0 0 0 0 0 0 0 0 0 0 0 2 5 5 0 0
5 5 5 5 6 46 73 16 38 5 5 5 6 5 5 11 69 100 100 100 100 70 68 59 20 0 0 0 0 0 0 0 0 0 0 0 0 0 0 0 0 0 0 0 0 5 7 0 0
5 5 4 0 0 4 5 5 6 7 6 5 7 10 5 2 7 30 9 10 23 11 0 0 5 0 0 0 0 0 0 0 0 0 0 0 0 0 0 0 0 0 0 0 0 21 50 0 0
0 0 0 0 0 0 0 13 0 0 0 0 0 0 0 0 0 0 0 0 0 0 0 0 0 0 0 0 0 0 0 0 0 0 0 0 0 0 0 0 0 0 0 0 0 52 73 2 0
0 0 0 0 0 0 0 17 0 0 0 0 0 0 0 0 0 0 0 0 0 0 0 0 0 0 0 0 0 0 0 0 0 0 0 0 0 0 0 0 0 0 0 2 0 68 68 5 0
0 0 0 0 0 0 5 78 64 0 0 2 1 0 0 0 0 0 0 0 0 0 0 0 0 0 0 0 0 0 0 0 0 0 0 0 0 0 0 0 0 0 5 1 4 76 5 2 0
0 0 0 0 0 2 5 89 100 36 2 0 0 0 0 0 0 0 0 0 0 0 0 0 0 0 0 0 0 0 0 0 0 0 0 0 0 0 0 0 0 5 5 0 5 5 0 0 0
0 0 0 3 1 0 0 11 5 100 36 1 2 0 0 0 0 0 0 0 0 0 0 0 0 0 0 0 0 0 0 0 0 0 0 0 0 0 0 0 5 5 5 5 3 0 0 0 0
5 0 0 0 0 0 0 5 68 46 98 50 0 2 4 4 0 0 0 0 0 0 0 0 0 0 0 0 0 0 0 0 0 0 0 0 0 0 0 0 5 5 3 2 0 0 0 0 0
0 0 0 0 0 0 0 13 99 12 77 47 31 52 4 4 0 2 0 0 0 0 0 0 0 0 0 0 0 0 0 0 0 0 0 0 0 0 3 5 5 0 0 0 0 0 0 0 0
3 0 0 0 0 0 3 0 92 100 26 5 5 7 5 3 44 99 100 82 21 2 5 5 5 4 1 0 0 1 0 0 0 0 0 0 0 5 5 5 2 0 0 0 0 0 0 0 0
0 0 0 0 0 0 0 0 10 56 4 68 11 5 5 0 0 0 6 77 100 100 86 36 6 5 5 4 5 5 5 7 5 4 5 5 5 24 8 5 0 0 0 0 0 0 0 0 0
0 0 0 0 0 0 0 0 0 0 0 0 0 0 0 0 0 0 0 0 0 0 38 85 100 99 62 5 0 4 55 37 5 5 5 5 4 3 0 0 0 0 0 0 0 0 0 0 0
0 0 0 0 0 0 0 0 2 1 0 0 0 0 0 0 0 0 0 0 0 0 0 0 0 1 14 65 6 3 0 0 0 0 0 0 0 0 0 0 0 0 0 0 0 0 0 0 0
0 0 0 0 0 0 0 0 0 0 0 0 0 0 0 0 0 2 0 0 0 1 0 0 0 0 0 0 0 0 0 0 0 0 0 0 0 0 0 0 0 0 0 0 0 0 0 0 0
0 0 0 0 0 0 0 0 0 0 0 0 0 0 0 0 0 0 1 5 5 4 10 29 4 3 0 0 0 0 0 0 0 0 0 0 0 0 0 0 0 0 0 0 0 0 0 0 0
0 0 0 2 0 0 0 0 4 0 0 0 0 0 4 91 0 0 0 0 5 5 5 57 57 100 99 94 2 0 0 0 0 0 0 0 0 0 0 0 0 0 0 0 0 0 0 0 0
0 0 2 3 0 0 1 1 0 0 0 5 5 5 94 5 5 5 5 2 5 53 70 89 46 100 100 100 100 92 5 0 0 0 0 0 0 0 0 0 0 0 0 0 0 0 0 0 0

GFSSGP_prec_cloud_024.txt.gz
Cloud_Cover
5 64 31 97 73 73 83 100 37 4 94 3 2 0 0 0 0 1 0 0 1 3 3 0 3 4 19 1 1 0 0 0 0 0 0 0 0 0 0 1 6 18 35 7 4 7 0 1 2
57 79 19 100 77 91 75 100 100 5 2 1 0 1 0 0 5 5 0 0 0 0 0 0 0 0 8 11 11 0 0 0 0 0 0 0 0 0 0 6 18 29 100 99 14 8 1 0 0
43 63 72 66 68 100 100 91 60 15 4 5 4 4 3 0 4 4 0 0 0 0 0 0 0 0 0 18 0 0 5 0 0 0 0 0 0 0 0 0 94 15 100 100 99 67 18 5 0
62 79 99 69 63 81 100 34 53 18 6 5 5 5 1 0 0 0 0 0 0 0 0 0 0 0 1 2 0 1 5 2 0 0 0 0 0 0 0 0 3 0 24 100 100 92 58 22 0
94 8 60 58 58 91 100 13 5 30 51 18 5 5 5 14 1 0 0 0 0 0 0 0 0 1 0 0 0 4 5 5 0 0 0 0 0 0 0 0 0 0 0 4 63 98 100 19 9
62 64 50 26 46 78 89 9 5 13 18 96 5 5 24 5 0 0 0 2 5 5 4 0 0 0 0 0 0 3 5 5 0 0 0 0 0 0 0 0 0 0 0 0 0 2 41 100 95
54 54 95 22 5 14 10 5 6 5 5 8 14 5 15 1 3 1 5 5 5 5 4 0 0 0 0 0 2 11 100 3 0 0 0 0 0 0 0 0 0 0 0 0 0 0 0 6 36
5 5 61 100 97 23 21 5 5 5 5 0 0 5 5 0 4 5 18 5 0 0 0 0 0 0 1 0 88 100 9 0 0 0 0 0 0 0 0 0 0 0 0 0 0 0 0 0 0
32 5 32 100 100 41 11 5 5 5 5 5 0 5 5 12 4 5 4 5 0 0 0 0 0 0 0 6 38 100 5 5 0 0 0 0 0 0 0 0 0 0 0 0 0 0 2 1 0
97 24 8 35 100 100 100 56 6 16 35 5 5 5 5 5 3 0 0 0 0 0 4 0 0 0 1 43 57 100 5 2 0 0 0 0 0 0 0 0 0 0 0 0 0 0 0 5 2
28 45 98 53 100 100 100 72 86 100 62 9 9 9 6 1 4 5 5 0 0 0 0 0 0 0 0 5 65 13 0 5 0 0 0 0 0 0 0 0 0 0 0 0 0 0 0 2 5
96 23 91 89 91 98 100 100 100 35 5 31 84 82 32 8 0 0 0 0 0 0 0 0 6 0 2 5 0 0 5 1 4 0 0 0 0 0 0 0 0 0 0 0 0 0 0 0 5
69 6 41 62 62 52 70 18 99 82 34 5 12 29 5 5 0 0 0 0 0 0 0 83 79 16 15 71 57 39 24 91 8 0 0 0 0 0 0 0 0 0 0 0 0 0 0 0 5
5 1 2 4 5 26 98 52 6 5 5 5 5 3 3 3 3 0 0 0 0 0 0 24 50 41 100 100 100 98 57 7 0 0 0 0 0 0 0 0 0 0 0 0 0 0 0 0 4
0 0 0 0 0 0 5 22 5 3 5 0 0 0 0 0 0 0 0 0 0 0 0 0 0 5 4 3 2 4 5 0 0 0 0 0 0 0 0 0 0 0 0 0 0 0 0 0 4
0 0 0 0 0 0 0 67 0 0 1 0 0 0 0 0 0 0 0 0 0 0 0 0 0 0 0 0 0 0 0 0 0 0 0 0 0 0 0 0 0 0 0 0 0 0 1 0 4
0 0 0 0 0 0 0 0 0 0 0 0 0 0 0 0 0 0 0 0 0 0 0 0 0 0 0 0 0 0 0 0 0 0 0 0 0 0 0 0 0 0 0 0 0 0 5 3 4
0 0 0 0 0 0 0 4 5 0 0 0 0 0 0 0 0 0 0 0 0 0 0 0 0 0 0 0 0 0 0 0 0 0 0 0 0 0 0 0 0 0 0 0 0 0 2 0 4
0 0 0 0 0 0 0 5 5 3 0 0 0 0 0 0 0 0 0 0 0 0 0 0 0 0 0 0 0 0 0 0 0 0 0 0 0 0 0 0 0 0 0 0 0 0 1 0 2
0 0 0 0 0 0 0 11 5 100 2 4 0 1 2 0 0 0 0 0 0 0 0 0 0 0 0 0 0 0 0 0 0 0 0 0 0 0 0 0 0 0 0 0 0 5 5 0 0
0 0 0 1 4 0 0 4 5 3 5 0 0 5 3 0 0 1 0 0 0 0 2 0 0 0 0 0 0 0 0 0 0 0 0 0 0 0 0 0 0 0 0 0 2 3 0 0 0
0 0 0 0 1 4 2 2 97 1 2 2 0 0 0 0 0 0 0 0 3 0 4 5 5 5 5 4 2 4 2 0 0 0 0 0 0 0 0 0 0 0 0 0 5 3 0 0 0
0 1 4 5 2 5 29 2 83 93 6 0 0 0 0 0 0 0 0 0 0 0 0 0 0 0 1 5 5 5 5 7 0 0 0 0 0 0 0 0 0 0 0 3 5 5 0 0 0
0 0 0 0 0 2 0 1 9 0 0 0 0 0 0 0 0 0 0 0 0 0 0 0 0 2 0 0 0 0 0 2 18 5 2 5 3 0 0 1 0 0 7 5 5 5 0 0 0
0 0 0 0 0 0 0 0 0 0 0 0 0 0 0 0 0 0 0 0 0 0 0 0 0 0 2 5 5 3 0 0 0 0 3 5 12 4 5 5 0 5 11 19 5 0 0 0 0
0 0 0 0 0 0 0 0 0 0 0 0 0 0 0 0 0 0 0 0 0 0 0 0 0 0 0 0 0 0 0 0 0 0 0 0 2 59 6 5 5 5 3 1 0 0 0 0 0
0 0 0 0 0 0 0 0 5 1 0 0 0 0 0 0 0 0 0 0 0 0 0 0 2 5 2 0 10 4 0 0 0 0 0 0 0 0 0 4 5 5 0 0 0 0 0 0 0
0 0 0 0 0 0 0 0 0 1 0 0 0 0 0 0 0 0 0 0 0 0 0 26 61 0 0 0 10 90 6 5 1 0 0 0 0 0 0 0 0 0 0 0 0 0 0 0 0
0 0 0 0 0 0 0 0 5 0 0 0 0 0 0 0 0 0 0 0 0 0 1 65 5 2 0 0 0 14 5 100 98 53 0 2 3 0 70 30 0 0 0 0 0 0 0 0 0
0 0 0 0 0 0 6 0 0 0 0 0 0 0 3 0 2 0 0 0 0 1 5 5 5 1 3 5 1 0 97 100 100 100 85 32 98 14 100 100 24 0 0 0 0 0 0 0 0

GFSSGP_prec_cloud_027.txt.gz
Cloud_Cover
5 5 18 19 8 12 72 78 100 35 2 2 5 5 2 5 1 0 2 5 5 0 0 0 0 4 0 0 7 0 0 0 0 0 0 0 0 0 0 6 17 17 5 2 1 2 0 0 0
5 5 92 22 99 51 100 32 95 11 4 3 5 0 0 5 2 9 5 2 0 0 0 0 0 0 0 13 10 0 0 0 0 0 0 0 0 0 0 39 3 100 100 97 5 3 0 0 0
5 5 54 79 35 57 75 59 5 5 5 2 5 5 1 5 4 7 4 5 0 0 0 0 0 0 1 20 14 0 0 0 0 0 0 0 0 0 0 0 24 100 100 97 46 13 11 0 0
5 5 5 27 80 98 86 100 100 9 4 3 5 5 5 5 4 33 5 5 0 0 0 0 0 0 1 7 16 0 0 0 2 5 3 0 0 0 0 0 0 8 100 100 100 92 30 5 0
5 5 5 5 39 49 29 5 8 5 6 15 3 3 4 25 5 5 5 23 2 0 0 0 0 0 14 17 0 0 0 0 0 2 0 0 0 0 0 0 0 0 0 4 95 100 100 2 8
25 5 5 6 5 5 24 5 5 5 5 9 5 18 10 5 1 0 2 4 0 0 0 0 0 0 7 9 0 4 0 0 0 5 1 0 0 0 0 0 0 0 0 0 0 25 100 82 12
50 5 5 43 73 5 57 7 5 5 5 6 5 10 12 0 0 0 0 0 0 0 0 0 0 0 0 0 0 2 0 0 10 14 5 0 0 0 0 0 0 0 0 0 0 0 27 81 32
27 5 5 5 91 100 100 100 39 24 5 5 5 1 6 0 0 0 0 0 1 1 0 0 4 0 0 0 0 3 3 0 14 28 7 0 0 0 0 0 0 0 0 0 0 0 0 0 0
51 46 14 48 5 5 95 100 100 96 7 5 5 5 9 12 5 0 0 0 0 0 0 0 0 4 0 0 0 42 19 3 5 7 1 0 0 3 0 0 0 0 0 0 0 0 0 0 0
21 11 88 100 90 30 30 85 100 100 99 14 72 61 48 60 5 5 5 0 0 0 0 3 0 0 0 0 0 1 1 4 6 31 0 5 5 4 0 0 0 0 0 0 0 0 0 0 0
98 57 34 64 100 95 12 10 67 81 10 68 67 5 64 8 2 3 5 5 4 0 0 0 3 0 0 0 0 95 100 30 26 6 47 96 68 1 0 0 0 0 0 0 0 0 0 0 0
7 7 21 12 93 88 80 38 50 12 73 31 5 5 5 5 6 0 5 3 0 0 0 0 0 0 0 0 1 94 96 98 100 98 100 95 5 0 0 0 0 0 0 0 0 0 0 0 0
5 5 55 92 92 100 100 37 33 2 6 5 0 2 4 4 11 3 0 0 0 0 0 0 0 0 0 0 4 88 81 78 100 72 17 4 0 0 0 0 0 0 0 0 0 0 0 0 0
5 5 5 5 7 44 65 5 5 5 3 0 0 0 0 0 0 2 0 1 0 0 0 0 0 0 0 0 0 0 0 1 3 4 0 0 0 0 0 0 0 0 0 0 0 0 0 0 0
2 5 5 5 5 10 6 4 0 0 0 0 0 0 0 0 0 0 0 0 0 0 0 0 0 0 0 0 0 0 0 0 0 0 0 0 0 0 0 0 0 0 0 0 0 0 0 0 0
4 5 0 0 0 0 0 0 0 0 0 0 0 0 0 0 0 0 0 0 0 0 0 0 0 0 0 0 0 0 0 0 0 0 0 0 0 0 0 0 0 0 0 0 0 0 0 0 0
2 2 1 1 4 5 4 2 0 0 0 0 0 0 0 0 0 0 0 0 0 0 0 0 0 0 0 0 0 0 0 0 0 0 0 0 0 0 0 0 0 0 0 0 0 0 0 0 0
5 5 0 2 0 5 5 15 0 0 0 0 0 0 0 0 0 0 0 0 0 0 0 0 0 0 0 0 0 0 0 0 0 0 0 0 0 0 0 0 0 0 0 0 0 0 0 0 0
0 0 0 0 0 0 0 4 2 0 0 0 0 0 0 0 0 0 0 0 0 0 0 0 0 0 0 0 0 20 100 13 0 0 0 0 0 0 0 0 0 0 0 0 0 0 0 0 0
0 0 0 0 0 0 1 0 5 0 0 0 0 0 0 0 0 0 0 0 0 0 0 0 0 0 0 0 2 18 20 93 97 10 0 0 0 0 0 0 0 0 0 0 0 0 0 0 0
0 0 0 0 0 0 0 1 0 0 0 0 0 0 0 0 0 0 0 0 0 0 0 0 0 0 0 0 0 0 0 0 51 100 53 3 0 0 0 0 0 0 0 0 0 0 0 0 0
0 0 0 0 0 5 0 10 0 0 0 0 0 0 0 0 0 0 0 0 0 0 0 0 0 0 0 0 0 0 0 6 48 6 99 100 48 1 5 0 0 0 5 0 0 0 0 0 0
5 5 0 0 2 5 4 0 4 0 0 0 0 0 0 0 0 0 0 0 0 0 0 0 0 0 0 0 0 0 0 0 0 8 70 94 99 89 22 4 0 0 2 0 0 0 0 1 5
3 2 0 2 4 0 0 0 0 0 0 0 0 0 0 0 0 0 0 0 0 0 0 0 0 0 0 0 0 0 0 0 0 0 0 0 0 35 99 83 9 2 0 3 0 2 5 5 5
0 0 0 0 0 0 0 0 0 0 0 0 0 0 0 0 0 0 0 0 0 0 0 0 0 0 0 0 0 0 0 0 0 0 0 0 0 31 3 73 37 5 5 5 4 5 5 5 5
0 0 0 0 0 0 0 0 0 0 0 0 0 0 0 0 0 0 0 0 0 0 0 0 0 0 0 0 0 0 0 0 0 0 0 0 0 0 36 77 68 4 0 5 5 5 14 71 17
0 0 0 0 0 0 0 0 0 0 0 0 0 0 0 0 0 0 0 0 0 0 0 0 0 0 0 0 0 0 0 0 0 0 0 0 0 0 0 46 100 66 2 0 0 1 4 9 5
0 0 0 0 0 0 0 0 1 0 0 0 0 0 0 0 0 0 0 0 0 0 0 0 0 0 0 0 0 0 0 0 0 0 0 0 0 0 0 0 84 100 60 0 0 0 0 1 0
0 0 0 0 0 0 1 1 6 0 0 0 0 0 0 0 0 0 0 0 0 0 0 3 0 0 0 0 0 0 0 0 0 0 0 0 1 30 38 5 94 100 97 27 0 0 0 0 0
0 0 0 0 0 0 4 2 0 0 0 0 0 0 0 0 3 0 0 0 0 0 0 0 0 0 0 0 4 0 0 0 0 0 0 0 72 57 100 89 100 100 100 98 9 0 0 0 0

GFSSGP_prec_cloud_030.txt.gz
Cloud_Cover
5 5 5 22 27 38 65 76 8 51 32 10 5 3 5 1 5 4 5 0 5 5 0 0 1 9 0 0 68 1 0 0 0 0 15 0 0 0 99 17 21 4 4 13 3 16 0 0 0
5 5 0 5 41 5 10 5 5 5 5 5 5 3 5 1 2 0 0 0 5 0 0 0 1 0 0 0 5 0 0 0 0 0 0 5 0 0 43 21 75 7 81 20 4 3 0 0 0
0 4 2 4 5 6 39 6 5 5 5 5 5 5 1 5 5 2 0 4 3 0 0 0 0 0 0 40 6 0 0 0 0 0 0 0 2 1 2 5 100 100 99 41 9 2 0 0 0
5 5 5 5 5 5 57 5 5 5 5 5 23 6 5 5 5 3 0 0 5 0 0 0 0 5 17 50 17 0 0 0 0 0 0 0 5 1 0 0 79 17 100 100 100 24 1 12 0
5 5 5 5 13 5 5 5 5 1 5 5 4 4 2 2 3 5 2 0 0 0 0 0 0 0 2 51 20 0 0 0 0 0 0 1 26 2 0 0 0 0 0 43 42 97 6 10 0
5 5 5 5 50 35 5 5 5 5 5 2 5 2 0 0 0 4 5 5 0 0 0 0 0 0 1 13 22 15 0 0 0 0 0 0 5 5 0 0 5 0 0 0 4 100 100 2 0
13 5 4 5 5 7 21 27 5 5 5 5 5 7 8 4 0 0 0 2 0 0 0 0 5 0 0 0 10 12 0 2 0 0 0 0 0 7 0 0 4 2 0 0 0 50 100 96 6
38 5 5 5 3 6 13 65 100 100 88 17 100 75 5 55 5 0 5 0 0 3 1 10 30 4 5 0 1 2 1 0 0 0 0 0 0 5 1 4 5 0 0 0 0 0 1 0 0
14 5 79 5 5 5 11 12 53 17 20 85 100 100 90 55 22 13 37 71 40 47 7 41 20 48 6 3 4 0 1 3 0 0 46 5 5 5 47 12 5 2 0 0 0 0 0 0 0
16 44 82 54 9 5 5 40 6 24 1 5 32 100 90 47 98 100 92 89 99 43 57 39 9 12 5 0 0 0 1 0 0 1 76 5 5 14 93 62 5 0 0 0 0 0 0 0 0
5 12 27 90 94 64 34 73 51 14 5 5 1 7 62 12 6 18 43 74 100 98 13 6 6 5 0 0 2 21 11 0 3 2 84 93 79 100 100 24 0 0 0 0 0 0 0 0 0
5 5 41 44 100 98 42 5 5 9 20 2 0 0 3 5 5 5 5 21 5 4 2 0 0 2 0 0 0 0 0 0 0 2 5 49 24 5 14 5 0 0 0 0 0 0 0 0 0
5 5 12 7 61 53 47 16 5 5 5 5 1 2 3 5 14 5 0 0 0 0 0 0 0 0 0 0 0 0 0 0 0 0 0 1 2 0 0 0 0 0 0 0 0 0 0 0 0
16 5 7 6 6 5 12 5 5 5 5 5 0 2 3 1 0 0 0 0 0 0 0 0 0 0 0 0 0 0 0 0 0 0 0 0 0 0 0 0 0 0 0 0 0 0 0 0 0
6 5 5 5 42 59 23 4 0 0 0 0 0 0 0 0 0 0 0 0 0 0 0 0 0 0 0 0 0 0 0 0 0 0 0 0 0 0 0 0 0 0 0 0 0 0 0 0 0
5 5 0 5 1 4 0 0 0 0 0 0 0 0 0 0 0 0 0 0 0 0 0 0 0 0 0 0 0 0 0 0 0 0 0 0 0 0 0 0 0 0 0 0 0 0 0 0 0
0 0 0 0 5 0 0 0 0 0 0 0 0 0 0 0 0 0 0 0 0 0 0 0 0 0 0 0 0 0 0 0 3 6 0 0 0 0 0 0 0 0 0 0 0 0 0 0 0
0 0 0 0 0 0 2 0 0 0 0 0 0 0 0 0 0 0 0 0 0 0 0 0 0 0 0 0 0 0 0 22 92 100 86 4 0 0 0 0 0 0 0 0 0 0 0 0 0
0 0 0 0 3 5 0 4 2 0 0 0 0 0 0 0 0 0 0 0 0 0 0 0 0 0 0 0 0 0 0 9 100 98 99 62 100 31 5 5 2 0 0 0 0 0 0 0 0
0 0 0 0 0 0 0 0 0 0 0 0 0 0 0 0 0 0 0 0 0 0 0 0 0 0 0 0 0 0 0 2 92 100 95 79 57 88 99 20 0 0 0 0 0 0 0 0 0
0 0 0 0 0 0 0 0 0 0 1 0 0 0 0 0 0 0 0 0 0 0 0 0 0 0 0 0 0 0 0 0 0 1 79 100 87 39 5 100 100 36 46 1 0 5 5 4 1
0 0 1 5 5 1 0 0 0 0 0 0 0 0 0 0 0 0 0 0 0 0 0 0 0 0 0 0 0 0 0 0 0 0 0 26 71 93 0 2 53 96 100 78 5 5 5 5 5
0 0 0 1 4 5 0 0 0 0 0 0 0 0 0 0 0 0 0 0 0 0 0 0 0 0 0 0 0 0 0 0 0 0 0 0 0 22 48 6 99 59 24 73 82 16 5 5 5
0 1 0 4 0 0 0 0 0 0 0 0 0 0 0 0 0 0 0 0 0 0 0 0 0 0 0 0 0 0 0 0 0 0 0 0 0 0 0 0 0 0 2 21 22 68 5 5 5
4 1 0 0 0 0 0 0 0 0 0 0 0 0 0 0 0 0 0 0 0 0 0 0 0 0 0 0 0 0 0 0 0 0 0 0 0 0 0 0 0 0 16 87 94 84 15 4 5
0 0 0 0 0 0 0 0 0 0 0 0 0 0 0 0 0 0 0 0 0 0 0 0 0 0 0 0 0 0 0 0 0 0 0 0 0 0 0 0 0 0 0 75 100 100 82 0 0
0 0 0 0 0 0 1 0 0 0 0 0 0 0 0 0 0 0 0 0 0 0 0 0 0 0 0 0 0 0 0 0 0 0 0 0 0 0 0 0 0 0 0 0 98 100 100 3 0
0 0 0 0 0 0 0 0 0 0 0 0 0 0 0 0 0 0 0 0 0 0 0 0 0 0 0 0 0 0 0 0 0 0 0 0 0 0 0 0 3 0 0 0 72 100 100 81 0
0 0 0 0 0 0 0 1 0 0 0 0 0 0 0 0 0 0 0 0 0 0 0 0 0 0 0 0 0 0 0 0 0 0 0 0 0 0 0 0 14 7 2 64 99 100 100 100 2
0 0 0 0 0 0 4 1 0 0 0 0 0 0 0 0 0 0 0 0 0 0 0 0 0 0 0 0 0 0 0 0 0 0 0 0 0 0 0 0 1 77 5 79 100 96 100 100 14

GFSSGP_prec_cloud_033.txt.gz
Cloud_Cover
5 7 46 68 39 80 12 49 5 22 25 5 9 7 6 5 5 5 5 1 1 0 0 1 3 1 8 8 19 4 23 16 15 10 19 12 0 4 33 46 74 76 22 11 15 11 0 1 2
5 5 5 26 41 5 24 50 49 70 57 30 5 5 10 5 5 5 5 4 3 4 5 4 41 7 1 4 26 12 2 7 14 16 21 3 0 0 100 10 49 61 23 17 9 21 5 0 11
5 5 5 5 6 16 18 51 40 43 63 5 12 5 36 5 5 4 0 2 5 5 5 8 55 5 13 50 33 10 14 2 3 6 1 0 0 0 16 8 21 96 100 7 9 10 14 12 12
5 5 5 5 5 5 5 5 11 54 20 6 29 20 5 4 5 4 5 5 0 2 5 1 32 6 38 92 74 15 16 6 0 0 0 0 0 0 4 16 61 16 7 50 100 14 8 14 2
13 5 5 5 6 19 4 3 5 60 76 18 5 5 5 5 4 5 0 3 5 4 0 0 5 12 14 100 58 24 12 0 0 0 0 0 0 0 0 4 17 13 5 14 25 0 11 14 22
7 53 5 22 5 5 36 20 5 5 5 5 5 5 5 5 5 5 2 0 0 4 5 5 5 0 2 66 94 24 0 0 0 0 0 0 0 0 1 3 7 7 6 16 14 7 44 12 20
0 26 61 7 5 5 5 5 5 32 65 63 19 7 16 16 19 38 6 17 22 11 54 89 13 5 5 5 33 23 11 0 0 0 0 0 0 0 5 5 5 5 6 49 16 100 100 19 8
1 2 19 16 5 21 5 5 5 5 8 100 100 100 100 97 100 100 100 100 33 26 20 12 5 16 17 0 0 16 4 0 0 0 0 0 0 0 4 5 5 5 6 70 61 92 100 98 1
0 5 2 5 5 94 76 23 5 2 1 8 74 69 5 5 41 100 72 54 5 4 2 7 37 37 15 4 0 0 0 3 0 0 0 0 0 0 0 5 5 18 28 70 5 0 2 1 2
4 3 5 5 5 10 100 42 24 52 11 5 5 81 100 100 100 90 81 5 5 3 19 73 100 57 20 0 0 0 0 0 0 0 0 4 4 0 0 3 98 96 17 48 5 2 0 0 0
3 4 5 61 5 8 5 8 8 5 7 44 51 88 97 42 24 25 13 5 5 4 0 64 78 64 34 0 0 0 9 0 0 0 0 0 0 0 0 0 1 3 1 1 0 0 0 0 0
5 5 5 20 70 6 5 5 5 5 5 5 27 5 5 56 6 5 2 5 5 4 4 10 95 77 48 0 4 14 0 2 0 0 0 4 0 0 0 0 0 0 0 0 0 0 0 0 0
5 5 5 5 5 5 5 2 0 5 51 32 5 5 5 5 5 5 5 5 0 0 0 0 0 31 63 23 2 22 10 0 0 0 0 0 0 0 0 0 0 0 0 0 0 0 0 0 0
7 5 7 7 7 5 5 5 5 5 5 5 5 5 5 5 5 5 5 4 1 0 0 0 0 0 0 6 8 59 65 62 22 1 0 0 0 0 0 0 0 0 0 0 0 0 0 0 0
58 15 71 37 69 5 4 0 5 0 3 4 5 4 1 2 0 0 0 0 0 0 0 0 0 0 91 32 16 0 0 1 4 0 0 0 0 0 0 0 0 0 0 0 0 0 0 0 0
1 2 3 2 1 0 0 0 0 0 0 0 0 0 0 0 0 0 0 0 0 0 0 0 0 0 0 25 67 29 0 0 0 37 3 32 74 19 0 0 0 0 0 0 0 0 0 0 0
0 0 0 0 0 0 0 0 0 0 0 0 0 0 0 0 0 0 0 0 0 0 0 0 0 0 0 0 0 2 5 5 2 0 10 82 96 97 23 0 3 0 0 0 0 0 0 0 0
0 0 0 0 0 0 0 0 0 0 0 0 0 0 0 0 0 0 0 0 0 0 0 0 0 0 0 0 0 0 0 0 3 30 23 7 46 32 98 82 2 94 10 0 0 0 0 0 0
0 0 0 0 0 0 0 0 0 0 0 0 0 0 0 0 0 0 0 0 0 0 0 0 0 0 0 0 0 0 0 0 11 0 0 38 5 18 6 5 44 84 1 64 29 1 0 0 0
0 0 3 0 0 0 0 0 0 0 0 0 0 0 0 0 0 0 0 0 0 0 0 0 0 0 0 0 0 0 0 0 2 92 100 100 100 100 86 3 5 5 39 31 22 17 22 0 0
0 0 0 0 0 0 0 0 0 0 0 0 0 0 0 0 0 0 0 0 0 0 0 0 0 0 0 0 0 0 0 0 0 0 36 88 100 100 100 100 100 0 20 6 97 63 97 69 2
0 0 0 0 0 0 0 0 3 3 0 0 0 0 0 0 0 0 0 0 0 0 0 0 0 0 0 0 0 0 0 0 0 0 0 0 0 0 3 55 100 96 67 2 2 98 92 100 90
0 0 0 0 0 0 0 0 5 0 0 0 0 0 0 0 0 0 0 0 0 0 0 0 0 0 0 0 0 0 0 0 0 0 0 0 0 0 0 0 3 14 1 98 1 0 97 11 100
0 0 0 0 1 0 0 0 2 0 0 0 0 0 0 0 0 0 0 0 0 0 0 0 0 0 0 0 0 0 0 0 0 0 0 0 0 0 0 0 0 0 0 0 46 1 41 0 7
0 0 0 0 0 0 0 0 0 0 0 0 0 0 0 0 0 0 0 0 0 0 0 0 0 0 0 0 0 0 0 0 0 3 3 0 0 0 0 0 0 0 0 0 14 26 0 0 1
0 0 0 0 0 0 0 0 0 0 0 0 0 0 0 0 0 0 0 0 0 0 0 0 0 0 0 0 0 0 0 0 0 0 0 0 0 0 0 0 0 0 0 0 2 31 18 0 0
0 0 0 0 0 0 0 0 0 0 0 0 0 0 0 0 0 0 0 0 0 0 0 0 0 0 0 0 0 0 0 0 0 0 0 0 0 0 0 0 0 0 0 0 0 0 45 19 0
0 0 0 0 0 0 0 0 0 0 0 0 0 0 0 0 0 0 0 0 0 0 0 0 0 0 0 0 0 0 0 0 0 0 0 0 0 0 0 0 0 0 0 0 0 0 0 56 37
0 0 0 0 0 0 0 1 0 0 0 0 0 0 0 0 0 0 0 0 0 0 0 0 0 0 0 0 0 0 0 0 0 0 0 0 0 0 0 0 0 0 0 0 0 0 0 14 100
0 0 0 0 0 0 2 1 0 0 0 0 0 0 0 0 0 0 0 0 0 0 0 0 0 0 0 0 0 0 0 0 0 0 0 0 0 0 0 0 0 0 0 0 0 4 5 6 67

GFSSGP_prec_cloud_039.txt.gz
Cloud_Cover
98 67 6 5 7 5 5 5 5 81 73 74 24 5 37 54 39 6 5 5 5 5 0 5 34 50 44 100 100 100 100 96 44 100 98 0 0 5 26 78 42 5 5 5 2 5 100 55 92
59 56 28 5 5 5 5 5 5 5 5 7 13 12 43 38 5 5 5 5 5 5 3 3 12 37 100 100 100 100 100 44 29 98 99 0 0 0 98 14 46 22 2 0 0 7 2 3 0
40 24 5 5 5 5 5 5 5 5 5 5 5 20 7 5 36 48 9 5 12 5 5 3 61 99 88 100 100 97 38 0 29 79 1 0 2 10 98 22 100 65 16 0 0 0 0 0 0
22 5 5 12 5 5 5 5 5 5 5 5 5 6 5 40 59 5 5 5 5 5 5 5 32 71 36 5 8 36 18 7 2 0 0 0 11 10 0 60 8 77 94 81 25 0 0 0 0
29 25 29 27 5 5 5 5 5 5 5 5 5 40 34 5 5 5 5 5 5 5 5 5 6 50 3 4 13 92 28 28 0 0 0 0 2 12 0 13 89 98 1 64 100 0 15 0 0
9 5 10 5 5 5 5 5 5 8 31 75 62 7 5 5 4 5 4 4 5 2 4 1 0 0 0 0 0 100 20 9 0 0 0 0 0 0 0 0 1 0 19 99 8 0 0 0 0
5 5 5 5 5 5 5 5 5 12 69 40 42 5 5 5 5 1 0 1 3 1 1 1 0 1 0 0 9 76 20 0 0 0 0 0 0 0 0 0 0 0 0 1 0 0 40 84 11
0 5 5 5 5 6 5 0 5 5 46 86 34 4 1 2 5 4 3 2 5 12 12 9 14 56 66 69 0 18 92 6 0 0 0 0 0 0 0 0 0 0 0 0 0 0 0 98 69
0 4 5 5 5 5 1 5 5 10 5 25 20 8 4 5 1 1 4 3 7 34 23 25 18 33 20 14 22 21 79 99 52 4 0 0 0 0 0 0 0 0 0 0 0 0 0 34 99
0 0 0 4 5 5 5 5 5 5 5 5 12 6 5 5 5 5 5 5 5 5 19 43 20 44 30 36 33 28 22 52 58 0 0 0 0 0 0 0 0 0 0 0 0 0 0 0 0
5 5 5 1 5 5 5 5 5 6 5 5 5 5 62 13 5 5 5 5 5 1 0 0 76 65 77 99 84 55 51 51 43 46 0 0 0 0 0 0 0 0 0 0 0 0 0 0 0
5 5 5 5 5 3 5 34 56 5 5 5 5 5 5 18 70 75 18 5 5 5 5 1 0 77 100 100 100 91 62 41 58 43 2 0 0 0 0 0 0 0 0 0 0 0 0 0 0
5 3 2 5 5 5 5 40 66 6 8 11 5 5 5 5 4 5 5 27 6 0 0 0 0 0 6 100 100 100 95 68 60 24 75 72 5 0 0 0 0 0 0 0 0 0 0 0 0
0 2 5 5 5 45 12 10 5 5 6 6 6 16 5 3 4 1 0 0 0 0 0 0 0 0 0 76 100 100 100 99 98 92 29 19 92 98 68 14 0 0 0 0 0 0 0 0 0
5 4 3 5 5 7 15 7 5 5 6 5 0 0 0 0 0 0 0 0 0 0 0 0 0 0 0 0 4 65 100 100 100 100 100 66 39 27 34 64 84 6 0 0 0 1 4 1 0
1 5 5 5 0 0 1 1 5 4 3 0 0 0 0 0 0 0 0 0 0 0 0 0 0 0 0 0 0 0 0 2 64 99 100 100 100 100 100 96 22 61 2 0 0 3 5 5 4
5 5 5 1 1 4 3 0 0 5 5 1 0 0 0 0 0 0 0 0 0 0 0 0 0 0 0 0 0 0 0 0 0 0 0 3 34 70 93 98 95 21 0 0 0 0 0 5 22
73 5 5 10 6 5 0 0 0 0 0 0 0 0 0 0 0 0 0 0 0 0 0 0 0 0 0 0 0 0 0 0 0 0 0 0 0 0 0 8 73 100 42 0 0 5 3 0 6
100 62 35 5 5 0 0 0 0 0 0 0 0 0 0 0 0 0 0 0 0 0 0 0 0 0 0 0 0 0 0 0 0 0 0 0 0 0 0 0 0 7 100 27 2 4 89 55 1
5 12 4 1 0 0 0 0 0 0 0 0 0 0 0 0 0 0 0 0 0 0 0 0 0 0 0 0 0 0 0 0 0 0 0 0 0 0 0 0 0 0 25 98 70 72 10 10 37
0 0 0 0 0 0 0 0 0 0 0 0 0 0 0 0 0 0 0 0 0 0 0 0 0 0 0 0 0 0 0 0 0 0 0 0 0 0 0 0 0 0 0 0 16 75 76 30 7
0 0 0 0 0 0 0 1 0 0 0 0 0 0 0 0 0 0 0 0 0 0 0 0 0 0 0 0 0 0 0 0 0 0 0 0 0 0 0 0 0 0 0 0 0 8 80 99 19
0 0 0 0 0 0 0 0 0 0 0 0 0 0 0 0 0 0 0 0 0 0 0 0 0 0 0 0 0 0 0 0 0 0 0 0 0 0 0 0 0 0 3 4 5 5 63 100 22
1 1 0 0 0 0 0 0 0 0 0 0 0 0 0 0 0 0 0 0 0 0 0 0 0 0 0 0 0 0 0 0 0 0 0 0 0 0 0 0 0 0 0 0 27 91 45 31 81
5 5 0 0 0 0 0 0 0 0 0 0 0 0 0 0 0 0 0 0 0 0 0 0 0 0 0 0 0 0 0 0 0 0 0 0 0 0 0 0 0 0 0 0 0 0 0 16 42
5 0 0 0 0 0 0 0 0 0 0 0 0 0 0 0 0 0 0 0 0 0 0 0 0 0 0 0 0 0 0 0 0 0 0 0 0 0 0 0 0 0 0 0 0 0 0 0 0
5 0 0 0 0 0 0 0 0 0 0 0 0 0 0 0 0 0 0 0 0 0 0 0 0 0 0 0 0 0 0 0 0 0 0 0 0 0 0 0 0 0 0 0 0 0 0 0 0
1 0 0 0 0 0 0 0 0 0 0 0 0 0 0 0 0 0 0 0 0 0 0 0 0 0 0 0 0 0 0 0 0 0 0 0 0 0 0 0 0 0 0 0 0 0 0 0 0
0 0 0 0 0 0 0 5 0 0 0 0 0 0 0 0 0 0 0 0 0 0 0 0 0 0 0 0 0 0 0 0 0 0 0 0 0 0 5 2 0 0 0 0 0 0 0 0 0
0 0 0 0 0 0 0 0 0 0 0 0 0 0 0 0 0 0 0 0 0 0 0 0 0 0 0 0 0 0 0 1 3 0 0 3 1 3 57 33 5 0 0 0 0 0 0 0 0

GFSSGP_prec_cloud_042.txt.gz
Cloud_Cover
7 5 5 5 29 5 6 44 54 69 46 75 93 68 62 42 14 5 5 5 4 0 0 3 7 34 10 87 0 83 95 50 33 51 23 0 2 0 0 0 0 0 2 0 0 0 76 82 93
5 5 5 38 51 46 5 5 5 13 32 30 5 5 5 29 21 5 5 5 2 4 4 5 1 74 54 100 100 100 100 51 22 98 34 0 0 0 0 4 34 4 0 0 1 0 20 0 2
5 71 5 5 18 40 5 5 5 37 9 14 9 13 35 10 5 5 5 5 1 0 1 1 0 83 100 98 98 97 92 8 59 96 1 0 0 0 2 44 90 16 0 0 0 0 0 0 0
8 7 24 47 7 5 5 14 5 5 38 20 5 5 5 5 5 5 5 2 0 1 0 0 0 28 26 14 5 6 5 3 0 0 0 0 2 0 0 25 0 40 63 0 0 0 6 0 0
5 5 5 5 5 5 7 84 62 9 5 5 5 5 5 5 5 5 5 2 3 2 0 0 0 0 0 0 0 0 32 30 0 0 0 0 0 0 0 0 0 0 0 0 0 0 4 0 0
5 5 5 5 5 5 14 18 99 10 5 5 5 5 5 5 4 1 4 2 0 1 0 0 0 0 6 5 22 47 77 39 0 0 0 0 0 0 0 0 0 0 0 0 0 0 5 0 0
5 5 19 9 5 5 5 45 84 5 5 5 5 5 5 5 4 4 0 0 0 2 0 0 0 0 0 12 2 78 100 51 12 0 0 0 0 0 0 0 0 0 0 0 0 0 16 8 6
4 5 5 5 5 26 38 5 60 8 6 5 2 0 0 0 0 5 1 5 0 0 0 2 12 34 30 99 20 0 94 66 18 2 0 0 0 0 0 0 0 0 0 0 0 0 0 0 0
0 0 3 2 0 6 43 61 25 41 73 6 5 0 0 0 0 3 8 1 4 4 0 0 3 16 62 60 47 6 82 100 83 2 0 0 0 0 0 0 0 0 0 0 0 0 0 0 0
5 5 0 4 5 5 5 5 12 31 5 5 5 0 0 0 0 0 0 0 0 0 0 6 35 31 37 60 49 74 100 21 10 1 1 0 0 0 0 0 0 0 0 0 0 0 0 0 0
5 5 5 5 5 9 5 5 5 4 3 5 5 5 0 5 4 5 5 5 4 5 5 0 0 2 37 96 62 100 97 96 39 5 2 2 0 0 0 0 0 0 0 0 0 0 0 0 0
16 64 33 5 13 68 100 55 5 5 5 5 5 18 88 100 74 9 5 5 3 0 0 0 0 0 0 85 100 100 83 96 96 73 22 47 6 0 0 0 0 0 0 0 0 0 0 0 0
0 5 5 5 5 16 52 72 26 5 5 5 5 5 5 19 20 5 5 0 0 0 0 0 0 0 0 38 93 100 100 100 85 81 84 74 75 22 1 0 0 0 0 0 0 0 0 0 0
4 4 5 5 5 20 41 21 5 5 5 5 5 5 5 5 5 3 0 0 0 0 0 0 0 0 0 0 29 85 100 100 100 100 100 98 94 70 61 36 9 1 0 0 0 0 0 0 0
5 5 5 5 5 6 5 5 5 5 5 5 5 5 4 3 0 0 0 0 0 0 0 0 0 0 0 0 0 0 0 6 52 98 100 100 100 100 100 99 62 62 9 0 0 0 0 0 0
5 26 14 7 5 5 5 5 5 5 4 0 4 0 4 1 0 0 0 0 0 0 0 0 0 0 0 0 0 0 0 0 0 0 0 0 13 83 99 100 100 100 78 98 64 2 0 0 0
5 20 28 8 5 5 5 5 5 5 5 5 4 0 0 0 0 0 0 0 0 0 0 0 0 0 0 0 0 0 0 0 0 0 0 0 0 0 1 33 82 100 100 99 56 85 3 0 0
9 5 5 5 6 6 5 5 5 5 0 0 0 0 0 0 0 0 0 0 0 0 0 0 0 0 0 0 0 0 0 0 0 0 0 0 0 0 0 0 0 18 86 97 100 29 91 8 0
100 100 100 100 100 98 87 63 5 5 0 0 0 0 0 0 0 0 0 0 0 0 0 0 0 0 0 0 0 0 0 0 0 0 0 0 0 0 0 0 0 0 0 17 42 100 23 11 22
5 5 5 5 5 5 4 5 4 0 0 0 0 0 0 0 0 0 0 0 0 0 0 0 0 0 0 0 0 0 0 0 0 0 0 0 0 0 0 0 0 0 0 0 0 42 100 59 42
1 4 5 5 4 3 0 0 0 0 0 0 0 0 0 0 0 0 0 0 0 0 0 0 0 0 0 0 0 0 0 0 0 0 0 0 0 0 0 0 0 0 0 0 0 1 54 100 99
0 0 0 0 0 0 0 0 0 0 0 0 0 0 0 0 0 0 0 0 0 0 0 0 0 0 0 0 0 0 0 0 0 0 0 0 0 0 0 0 0 0 0 0 0 0 0 25 99
3 1 0 0 0 0 0 1 5 0 0 0 0 0 0 0 0 0 0 0 0 0 0 0 0 0 0 0 0 0 0 0 0 0 0 0 0 0 0 0 0 0 0 0 0 0 0 0 8
0 0 0 0 0 1 5 4 0 1 0 0 0 0 0 0 0 0 0 0 0 0 0 0 0 0 0 0 0 0 0 0 0 0 0 0 0 0 0 0 0 0 0 0 0 0 0 0 0
0 0 0 0 3 5 5 3 3 1 0 0 0 0 0 0 0 0 0 0 0 0 0 0 0 0 0 0 0 0 0 0 0 0 0 0 0 0 0 4 1 0 0 0 0 0 0 0 0
5 3 5 5 77 5 5 5 1 0 0 0 0 0 0 0 0 0 0 0 0 0 0 0 0 0 0 0 0 0 0 0 0 0 0 0 0 1 5 5 5 1 0 0 0 0 0 0 0
6 36 40 5 5 5 5 4 0 0 0 0 0 0 0 0 0 0 0 0 0 0 0 0 0 0 0 0 0 0 0 0 0 0 0 0 0 1 5 5 5 5 5 0 0 0 5 5 1
74 34 5 5 5 5 5 5 5 0 0 0 0 0 0 0 0 0 0 0 0 0 0 0 0 0 0 0 0 0 0 0 0 0 0 5 4 5 5 5 5 5 5 4 0 0 5 5 5
45 19 5 5 5 0 3 4 5 0 0 0 0 0 0 0 0 0 0 0 0 0 0 0 0 0 0 0 0 0 0 0 3 5 5 5 5 5 5 5 5 5 5 5 5 0 4 5 5
18 5 0 0 0 0 0 4 0 0 0 0 0 0 0 0 0 0 0 0 0 0 0 0 0 0 0 0 0 0 5 5 5 5 5 58 67 73 99 76 5 36 94 100 65 5 5 5 5

GFSSGP_prec_cloud_045.txt.gz
Cloud_Cover
5 5 5 37 100 97 99 84 24 72 28 22 5 5 5 5 5 23 5 5 5 5 3 0 0 0 2 0 6 33 12 4 0 0 0 0 0 0 0 0 0 0 4 9 0 0 0 59 9
5 19 57 6 98 100 83 90 75 12 5 4 4 8 5 5 5 3 5 5 5 4 2 2 0 0 0 19 31 55 1 5 46 37 0 0 0 0 0 0 0 0 2 2 6 0 0 0 0
5 56 73 65 58 81 66 49 21 5 5 5 2 5 4 4 5 4 5 4 3 4 5 1 0 0 0 1 7 9 38 7 7 0 0 0 0 0 0 0 0 0 0 0 0 13 2 0 0
5 5 45 79 69 63 56 15 5 5 5 5 5 5 4 2 5 5 2 1 5 5 5 5 2 0 0 0 0 0 11 0 0 0 0 0 0 0 0 0 0 0 0 0 0 0 15 0 0
4 5 5 5 22 98 70 7 5 5 5 5 5 5 5 5 5 5 5 0 2 1 0 0 0 0 1 0 0 0 58 10 13 0 0 0 0 0 0 0 0 0 0 0 0 0 1 13 0
5 5 6 5 8 24 41 43 5 5 5 5 5 5 5 5 5 4 5 4 1 0 3 0 0 0 8 0 3 75 100 78 0 0 0 0 0 0 0 0 0 0 0 0 0 0 23 13 0
5 5 8 5 5 6 5 5 5 5 5 5 5 5 3 0 4 5 3 2 0 0 0 0 5 0 0 0 0 47 89 57 0 0 0 0 0 0 0 0 0 0 0 0 0 0 21 23 0
5 5 5 5 7 5 5 5 5 5 5 5 1 4 0 5 5 5 5 5 6 1 0 7 19 44 0 50 2 0 0 2 0 10 0 0 0 0 0 0 0 0 0 0 0 0 0 0 0
0 5 59 22 19 5 5 5 9 5 5 5 5 1 0 1 0 4 5 10 78 25 72 30 19 39 43 52 61 0 0 2 55 1 0 0 0 0 0 0 0 0 0 0 0 0 0 0 0
4 5 5 15 7 5 5 5 5 5 5 0 0 0 0 0 0 1 1 0 0 0 0 0 0 15 43 75 100 99 76 43 34 35 38 0 0 0 0 0 0 0 0 0 0 0 0 0 0
31 5 5 5 5 5 5 5 5 5 3 0 0 0 0 0 0 0 5 0 0 0 0 0 0 0 0 11 39 84 88 27 69 100 100 79 2 6 0 0 0 0 0 0 0 0 0 0 0
62 94 95 44 25 10 7 5 5 5 5 5 5 5 5 5 5 5 5 0 0 0 0 0 0 0 0 3 36 94 100 98 11 8 99 100 100 60 12 1 0 0 0 0 0 0 0 0 0
87 96 67 37 70 74 61 39 5 5 5 5 5 5 5 5 5 5 0 0 0 0 0 0 0 0 0 2 23 36 83 100 100 100 97 100 92 37 40 91 20 2 0 0 0 0 0 0 0
5 31 60 10 5 5 5 5 5 5 5 5 5 5 3 5 1 0 0 0 0 0 0 0 0 0 0 0 0 0 1 6 36 94 100 100 100 99 100 37 5 67 24 0 0 0 0 0 0
5 5 5 5 5 5 5 5 5 5 5 5 5 5 5 0 2 0 0 0 0 0 0 0 0 0 0 0 0 0 0 0 0 0 1 7 47 100 100 99 97 62 67 51 22 15 5 1 0
38 53 81 59 49 29 27 99 5 8 15 17 5 5 3 0 0 0 0 0 0 0 0 0 0 0 0 0 0 0 0 0 0 0 0 0 0 0 0 0 17 86 100 96 62 73 95 59 4
72 85 87 100 53 88 32 10 5 25 7 5 5 5 5 5 3 3 0 0 0 0 0 0 0 0 0 0 0 0 0 0 0 0 0 0 0 0 0 0 0 0 5 84 100 100 71 57 66
5 5 36 41 48 5 5 5 10 5 6 68 60 12 20 6 5 4 0 0 0 0 0 0 0 0 0 0 0 0 0 0 0 0 0 0 0 0 0 0 0 0 0 0 45 97 100 96 23
100 100 100 96 100 100 100 100 100 100 100 92 68 43 9 5 0 0 0 0 0 0 0 0 0 0 0 0 0 0 0 0 0 0 0 0 0 0 0 0 0 0 0 0 0 14 22 99 100
5 5 28 70 94 60 30 5 27 16 5 4 0 0 0 0 0 0 0 0 0 0 0 0 0 0 0 0 0 0 0 0 0 0 0 0 0 0 0 0 0 0 0 0 0 0 4 14 72
100 100 92 38 5 5 5 5 2 3 2 0 0 0 0 0 0 0 0 0 0 0 0 0 0 0 0 0 0 0 0 0 0 0 0 0 0 0 0 0 0 0 0 0 0 0 0 0 0
5 10 16 5 5 5 3 2 0 0 0 0 0 0 0 0 0 0 0 0 0 0 0 0 0 0 0 0 0 0 0 0 0 0 0 0 0 0 0 0 0 0 0 0 0 0 0 0 0
4 4 5 5 0 0 0 0 0 0 0 0 0 0 0 0 0 0 0 0 0 0 0 0 0 0 0 0 0 0 0 0 0 0 0 0 0 0 0 0 0 0 0 0 0 0 0 0 0
0 0 0 0 0 0 0 0 0 2 2 5 5 0 0 0 0 0 0 0 0 0 0 0 0 0 0 0 0 0 0 0 0 0 0 0 0 0 0 0 0 0 1 0 0 0 0 0 0
0 0 0 0 0 0 1 4 7 4 5 12 8 2 0 0 0 0 0 0 0 0 0 0 0 0 0 0 0 0 0 0 0 0 0 0 0 0 0 0 0 5 5 5 3 0 0 0 0
0 0 0 0 0 1 13 5 5 17 8 5 1 5 5 5 2 0 0 0 0 0 0 0 0 0 0 0 0 0 0 0 0 0 0 0 0 0 0 0 0 0 4 5 5 2 0 3 0
0 0 0 0 5 5 6 47 100 100 23 1 5 5 5 5 1 0 0 0 0 0 0 0 0 0 0 0 0 0 0 0 0 0 0 0 0 0 0 0 5 5 5 5 5 5 5 5 4
0 5 5 5 5 6 62 58 89 100 5 0 0 1 1 0 0 0 0 0 0 0 0 0 0 0 0 0 0 0 0 0 0 0 0 0 2 3 4 5 5 5 57 32 5 5 32 5 5
5 5 5 5 9 5 65 98 5 23 5 1 1 0 0 0 0 0 0 0 0 0 0 0 0 0 0 0 0 0 0 0 0 2 3 5 5 5 5 34 13 45 50 96 9 86 100 100 7
6 30 58 68 30 32 33 32 98 0 0 0 0 0 0 0 0 0 0 0 0 0 0 0 0 0 0 0 0 0 0 2 5 5 5 5 5 5 57 97 99 100 100 99 28 98 79 100 100

GFSSGP_prec_cloud_048.txt.gz
Cloud_Cover
19 30 5 6 98 98 72 98 9 5 21 12 40 43 5 0 0 0 2 5 5 5 3 0 0 0 0 0 0 0 0 0 0 0 0 0 0 0 0 1 5 3 1 3 10 0 0 1 4
5 5 5 98 100 100 100 20 5 5 4 2 16 5 5 0 1 0 0 0 0 0 0 0 0 0 0 23 7 0 0 0 0 0 0 0 0 0 0 0 0 12 3 7 3 8 0 0 0
5 5 5 71 54 100 19 5 5 5 5 5 5 4 4 2 0 0 0 2 4 1 0 0 0 0 0 0 0 0 78 4 0 0 0 0 0 0 0 0 0 0 0 0 0 2 0 0 0
5 7 7 60 27 30 5 5 5 0 1 2 3 0 0 0 0 0 0 1 0 0 0 0 0 0 0 0 0 0 79 0 0 0 0 0 0 0 0 0 0 0 0 0 0 0 0 0 0
4 8 17 70 5 5 4 3 5 4 4 0 5 0 1 2 14 0 0 0 3 0 0 0 0 0 0 0 0 0 81 80 0 0 0 0 0 0 0 0 0 0 0 0 0 0 18 0 0
0 5 20 64 5 5 5 3 0 5 3 1 2 0 0 4 5 5 11 0 0 0 0 0 0 0 0 0 0 29 23 82 0 0 0 0 0 0 0 0 0 0 0 0 0 0 43 6 0
0 4 13 5 5 5 5 5 5 5 3 2 1 4 1 0 5 9 9 30 54 2 0 22 0 0 0 0 0 0 0 0 0 0 0 0 0 0 0 0 0 0 0 0 0 0 7 22 0
12 41 5 5 5 3 4 1 5 5 3 0 0 5 4 5 5 5 5 29 29 15 6 99 89 60 65 0 1 0 0 0 0 0 0 0 0 0 0 0 0 0 0 0 0 0 0 0 0
41 5 94 39 5 5 5 5 5 5 3 0 0 0 4 5 5 54 73 98 98 48 76 6 1 75 50 95 83 0 0 8 1 0 8 88 4 0 0 0 0 0 0 0 0 0 0 0 0
0 4 27 6 5 5 5 5 5 5 5 0 0 0 0 0 0 3 8 3 0 0 0 0 0 0 0 15 4 17 2 18 17 35 85 97 24 4 0 0 0 0 0 0 0 0 0 0 0
7 17 5 5 3 2 5 6 5 9 4 1 0 0 0 4 1 0 0 1 0 0 0 0 0 0 0 0 0 4 2 0 0 0 44 3 70 100 28 0 0 0 0 0 0 0 0 0 0
51 78 14 5 5 5 5 5 5 5 5 5 5 5 4 0 0 0 0 0 0 0 0 0 0 0 0 0 0 0 9 12 86 31 3 30 48 1 46 83 97 10 0 0 0 0 0 0 0
7 6 73 46 63 47 50 61 32 5 6 5 5 2 0 0 0 0 0 0 0 0 0 0 0 0 0 0 0 0 0 9 50 99 100 100 67 37 49 96 61 97 76 3 0 0 0 0 0
5 5 5 6 11 40 26 48 51 5 5 4 5 2 0 2 5 5 4 1 4 0 0 0 0 0 0 0 0 0 0 0 0 0 4 22 56 99 100 99 90 78 85 58 31 2 3 0 0
5 5 5 5 5 5 5 5 22 5 5 5 5 4 5 5 5 5 5 5 0 0 0 0 0 0 0 0 0 0 0 0 0 0 0 0 0 0 0 0 3 54 100 100 100 23 0 2 0
5 5 5 8 5 5 5 9 5 5 5 5 5 5 5 5 5 5 5 4 5 5 0 0 0 0 0 0 0 0 0 0 0 0 0 0 0 0 0 0 0 0 0 2 7 81 98 23 9
5 5 50 70 5 69 6 5 8 5 5 5 5 5 5 5 5 12 22 5 5 4 0 0 0 0 0 0 0 0 0 0 0 0 0 0 0 0 0 0 0 0 0 0 0 0 87 100 99
57 10 41 89 100 5 72 7 77 5 5 5 5 10 45 62 95 100 62 3 0 0 0 0 0 0 0 0 0 0 0 0 0 0 0 0 0 0 0 0 0 0 0 0 0 0 0 26 100
52 56 16 5 98 62 6 58 21 87 39 100 100 100 100 99 97 6 5 0 0 0 0 0 0 0 0 0 0 0 0 0 0 0 0 0 0 0 0 0 0 0 0 0 0 0 0 0 0
100 100 100 94 100 100 93 97 98 99 66 50 12 5 5 5 5 0 5 0 0 0 0 0 0 0 0 0 0 0 0 0 0 0 0 0 0 0 0 0 0 0 0 0 0 0 0 0 0
44 71 100 98 83 48 25 43 26 50 39 5 5 5 5 0 0 0 2 2 0 0 0 0 0 0 0 0 0 0 0 0 0 0 0 0 0 0 0 0 0 0 0 0 0 0 0 0 0
12 70 5 5 5 17 22 26 38 23 1 0 0 3 0 0 0 5 5 4 4 0 0 0 0 0 0 0 0 0 0 0 0 0 0 0 0 0 0 0 0 0 0 0 0 0 0 0 0
5 5 5 5 5 5 4 5 0 0 0 0 0 4 0 0 0 3 5 5 0 0 0 0 0 0 0 0 0 0 0 0 0 0 0 0 0 0 0 0 0 0 0 0 0 0 0 0 0
5 5 5 5 5 2 2 0 0 2 1 0 0 0 0 0 0 5 5 4 0 0 0 0 0 0 0 0 0 0 0 0 0 0 0 0 0 0 0 0 0 0 0 0 0 0 0 0 0
5 5 5 5 4 0 0 0 0 0 0 0 4 5 5 5 6 14 8 5 5 3 0 0 0 0 0 0 0 0 0 0 0 0 0 0 0 0 0 0 0 0 0 0 0 4 5 5 3
5 5 4 1 0 0 0 0 0 0 0 0 0 0 5 49 92 73 28 5 5 1 0 0 0 0 0 0 0 0 0 0 0 0 0 0 0 0 0 0 0 0 0 0 0 0 3 5 5
0 0 0 0 0 0 0 0 0 0 3 5 3 5 6 34 71 54 27 5 3 0 0 0 0 0 0 0 0 0 0 0 0 0 0 0 0 0 0 0 0 0 0 0 5 5 5 5 5
0 0 0 0 0 0 0 0 0 0 5 18 42 90 100 100 100 44 5 3 0 0 0 0 0 0 0 0 0 0 0 0 0 0 0 0 0 0 0 0 0 4 5 6 84 54 5 5 3
0 0 0 0 0 0 1 9 37 69 16 3 4 5 87 86 34 5 0 0 0 0 0 0 0 0 0 0 0 0 0 0 0 0 0 0 0 0 1 0 0 0 5 7 90 55 24 96 31
0 0 0 0 3 10 8 66 99 97 61 5 0 1 0 0 0 0 0 0 0 0 0 0 0 0 0 0 0 0 0 0 0 0 5 5 5 5 5 5 5 2 4 5 93 100 93 100 58

GFSSGP_prec_cloud_051.txt.gz
Cloud_Cover
38 5 5 21 23 60 81 82 5 6 70 98 6 9 5 12 43 47 1 0 0 0 0 0 0 0 0 16 0 4 0 0 0 0 0 1 2 7 2 5 12 0 16 8 11 0 0 0 0
6 5 92 62 100 5 5 5 5 4 71 19 1 5 3 2 1 2 3 0 4 0 0 0 0 0 0 9 8 0 0 22 2 0 0 0 0 10 15 0 13 9 4 8 18 8 1 0 0
5 10 45 14 75 79 75 5 5 5 5 5 3 5 5 5 5 4 0 0 0 0 0 0 0 0 0 0 0 0 31 0 10 0 0 0 0 0 2 16 3 10 14 15 23 20 16 0 2
0 5 5 21 33 90 23 5 5 5 5 5 5 4 0 0 0 0 0 0 0 0 0 0 0 0 0 0 0 0 1 0 0 0 0 0 0 0 0 0 0 0 0 0 0 0 9 0 0
0 5 5 5 5 5 5 5 5 4 5 5 3 5 5 2 0 0 0 0 0 0 0 0 0 0 0 0 0 0 0 0 0 0 0 0 0 0 0 0 0 0 0 0 0 0 24 0 0
0 3 7 5 4 4 5 5 5 5 5 5 0 1 0 0 0 1 50 8 0 0 0 0 0 0 0 0 0 0 0 0 0 0 0 0 0 0 0 0 0 0 0 0 0 0 28 6 0
4 1 0 3 5 5 2 5 5 5 5 5 2 0 4 0 0 1 91 90 0 6 7 100 91 0 98 0 0 0 0 0 0 0 0 0 0 0 0 0 0 0 0 0 0 0 5 0 0
5 5 24 12 5 0 1 0 0 5 0 5 5 3 0 3 0 0 53 99 72 68 0 98 94 45 51 0 1 0 0 0 0 0 0 0 0 3 5 0 0 0 0 0 0 0 0 0 0
5 5 37 73 5 5 24 5 5 5 0 0 0 5 5 0 0 0 2 3 9 87 56 4 0 0 0 4 50 0 0 0 11 1 0 7 59 5 1 0 0 0 0 0 0 0 0 0 0
0 5 39 20 45 68 79 57 18 5 0 1 1 3 5 0 0 3 0 7 20 24 0 0 0 0 11 0 9 9 1 0 5 0 0 1 4 0 0 0 0 0 0 0 0 0 0 0 0
10 5 5 56 43 83 7 6 6 3 0 0 0 1 0 0 0 0 1 0 0 0 0 0 0 0 0 0 14 26 28 29 22 64 73 61 68 97 94 55 4 0 0 0 0 0 0 0 0
37 6 5 5 5 6 6 1 9 6 5 5 2 3 5 0 0 0 2 3 0 0 0 0 0 0 0 0 1 0 12 14 22 33 35 55 69 82 51 85 29 88 38 1 0 0 0 0 0
83 5 11 5 5 5 6 8 5 5 5 5 5 5 5 5 1 0 2 4 0 0 0 0 0 0 0 0 0 0 0 0 0 0 26 27 100 94 59 13 76 100 100 100 84 0 0 0 0
100 10 36 5 5 5 6 46 11 5 5 5 5 4 5 5 5 5 1 1 0 0 0 0 0 1 5 4 1 0 0 0 0 0 0 0 0 3 2 29 86 100 100 100 100 100 78 21 0
100 94 5 5 5 5 5 5 5 5 5 5 5 5 5 26 5 5 5 5 5 0 3 4 5 61 97 6 4 0 0 0 0 0 0 0 0 0 0 0 0 0 7 3 28 54 100 100 99
76 55 40 5 5 7 5 6 5 5 5 5 5 5 5 5 5 5 5 5 5 5 5 18 94 80 37 1 0 0 0 0 0 0 0 0 0 0 0 0 0 0 0 10 0 0 0 31 58
34 95 64 55 36 5 5 5 7 5 5 5 5 5 5 5 5 5 5 5 14 65 65 62 23 1 0 0 0 0 0 0 0 0 0 0 0 0 0 0 0 0 0 0 2 0 0 0 0
90 83 82 92 93 58 5 5 25 5 5 5 5 5 5 5 47 36 59 75 71 7 5 5 0 0 0 0 0 0 0 0 0 0 0 0 0 0 0 0 0 0 0 0 0 0 0 0 0
100 100 100 97 100 100 93 97 6 55 8 12 100 93 100 100 96 10 5 5 5 5 5 5 0 0 1 5 0 0 0 0 0 0 0 0 0 0 0 0 0 0 0 0 0 0 0 0 0
93 100 100 100 100 100 43 100 100 100 100 98 79 50 5 5 9 29 16 5 0 5 5 0 0 5 5 5 0 0 0 0 0 0 0 0 0 0 0 0 0 0 0 0 0 0 0 0 0
80 100 98 30 93 100 100 100 100 100 99 92 88 88 100 100 88 60 8 0 0 3 3 0 4 6 65 12 5 4 0 0 0 0 0 0 0 0 0 0 0 0 0 0 0 0 0 0 0
100 100 100 96 60 34 25 88 49 50 71 34 21 6 5 5 5 0 0 0 0 0 0 4 6 30 32 5 5 5 4 5 0 0 0 0 0 0 0 0 0 0 0 0 0 0 0 0 0
94 80 13 5 5 5 0 3 100 5 5 0 5 5 5 3 0 0 0 0 0 0 5 5 15 86 62 32 5 5 5 0 0 0 0 0 0 0 0 0 0 0 0 0 0 0 0 0 0
16 6 4 1 0 0 3 0 17 46 10 20 5 5 0 0 0 0 0 1 0 3 5 5 5 5 5 3 0 0 0 0 0 0 0 0 0 0 0 0 0 0 0 0 0 0 0 0 1
2 3 0 2 3 5 6 5 5 7 8 5 0 0 0 0 0 0 5 10 5 5 12 8 5 5 5 5 4 0 0 0 0 0 0 0 0 0 0 0 0 0 0 0 0 0 0 0 1
5 3 1 5 16 5 5 2 2 0 0 0 0 0 0 0 2 66 100 58 16 18 6 5 5 5 1 0 0 0 0 0 0 0 0 0 0 0 0 0 0 0 0 0 0 0 0 0 0
5 5 5 5 4 1 0 0 0 0 0 0 0 0 0 4 89 100 54 70 72 89 76 5 4 1 0 0 0 0 0 0 0 0 0 0 0 0 0 0 0 0 0 0 0 0 5 5 35
3 0 0 0 0 0 0 0 0 0 0 0 0 0 4 27 29 16 99 100 65 6 1 0 0 0 0 0 0 0 0 0 0 0 0 0 0 0 2 5 5 5 5 5 4 0 2 5 52
0 0 0 0 0 0 0 0 0 0 0 0 2 39 82 36 9 5 5 5 0 0 0 0 0 0 0 0 0 0 0 0 0 0 0 0 0 4 5 5 5 5 5 5 5 5 3 3 89
0 0 0 0 0 0 0 0 0 0 4 5 8 9 5 5 2 0 0 0 0 0 0 0 0 0 0 0 0 0 0 0 0 0 0 0 0 3 5 0 0 5 5 5 5 5 5 5 5

GFSSGP_prec_cloud_054.txt.gz
Cloud_Cover
4 5 70 99 64 7 73 100 100 99 18 47 100 100 50 20 66 72 15 23 5 0 2 2 0 0 0 0 6 1 11 9 0 0 0 6 10 18 1 21 8 10 15 10 0 6 3 0 0
8 49 60 96 8 13 15 32 100 71 5 13 95 6 39 85 62 52 35 5 2 0 0 0 0 0 0 1 8 0 9 89 5 0 0 0 5 6 2 8 16 55 16 18 14 14 0 16 4
35 52 97 41 5 42 4 5 98 7 5 5 5 6 5 14 6 5 5 4 4 1 0 0 0 0 0 0 0 0 0 0 2 0 0 0 0 6 58 5 8 6 28 27 25 28 11 0 0
5 5 6 12 5 12 32 60 5 11 5 5 5 5 5 5 5 2 1 0 0 0 0 2 0 0 0 0 0 0 0 0 0 0 0 0 0 0 0 0 0 0 0 0 0 10 0 0 0
4 5 4 4 3 2 2 3 5 5 5 5 5 5 3 5 5 4 0 0 0 2 5 2 0 0 0 0 0 0 0 0 0 0 0 0 0 0 0 0 0 0 0 0 0 0 15 0 0
10 4 3 1 5 5 1 0 5 5 5 2 5 11 5 3 2 1 0 18 5 0 0 0 0 0 1 0 0 0 0 0 0 0 0 0 0 0 0 0 0 0 0 0 0 0 0 14 0
5 4 3 0 2 0 4 0 0 0 0 0 5 5 5 5 5 5 60 100 62 0 0 0 64 0 0 0 0 0 0 0 0 0 0 0 0 0 0 0 0 1 0 0 0 0 0 0 0
0 3 4 1 0 0 0 0 0 0 5 2 0 5 5 0 5 6 42 17 0 0 0 0 3 0 0 23 0 0 30 1 8 0 0 0 1 0 0 3 6 2 0 2 0 0 0 0 0
5 5 9 5 0 2 0 0 0 0 0 0 0 2 0 1 5 11 12 56 5 21 26 1 0 0 0 21 31 9 32 74 42 0 0 1 37 17 0 6 9 0 0 0 0 0 0 0 0
5 3 20 91 12 5 5 3 3 0 0 5 5 5 5 2 0 0 3 0 13 60 74 27 7 0 1 26 32 42 31 23 30 8 6 8 3 0 1 30 35 0 0 0 0 0 0 0 3
0 3 0 7 62 6 5 42 5 5 5 5 5 0 0 4 4 4 0 0 0 24 4 23 5 5 24 90 96 100 71 85 98 100 91 87 51 99 100 52 93 93 0 0 0 0 0 0 0
4 4 1 0 1 2 0 5 100 13 3 0 0 0 0 5 5 5 5 4 4 4 5 5 5 5 5 5 0 0 0 5 10 82 58 7 86 100 100 100 100 100 100 100 100 28 0 0 0
5 5 5 5 5 5 5 5 5 5 4 2 4 3 0 0 1 5 3 0 0 4 5 5 5 1 2 5 5 5 5 14 6 5 4 0 0 0 68 100 72 80 100 100 100 100 89 6 0
14 5 5 5 5 5 7 5 5 5 5 5 5 5 5 4 5 4 5 0 2 5 5 5 0 0 2 5 5 27 62 38 6 2 0 0 0 0 0 0 5 6 23 16 51 100 100 100 100
62 38 5 5 19 42 37 6 5 5 5 5 5 5 5 5 5 3 5 5 5 5 5 5 5 5 5 16 76 56 20 5 4 0 0 0 0 0 0 0 0 0 0 0 0 1 1 50 93
21 5 5 5 6 25 5 5 5 5 5 5 5 5 5 5 5 10 7 5 5 5 5 5 5 26 84 18 30 5 0 0 0 0 0 0 0 0 0 0 0 0 0 0 0 0 0 0 0
30 95 16 5 5 21 5 6 5 5 5 5 5 5 5 5 5 5 5 5 14 21 34 47 5 5 5 5 2 0 0 0 0 0 0 0 0 0 0 0 0 0 0 0 0 0 0 0 0
100 97 98 97 78 83 8 5 5 5 5 5 5 5 5 5 5 5 16 32 95 71 8 5 5 18 5 4 0 0 0 0 2 5 0 0 0 0 0 0 0 0 0 0 0 0 0 0 0
100 100 100 100 100 100 57 96 73 98 100 37 43 53 12 70 63 59 45 5 5 21 86 92 36 5 5 0 0 0 0 5 5 5 5 5 0 0 0 0 0 0 0 0 0 0 0 0 0
100 100 100 100 100 100 100 100 100 100 100 81 100 98 100 100 100 100 98 96 62 50 16 5 5 3 0 4 3 5 5 5 5 8 7 5 5 0 0 0 0 0 0 0 0 0 0 0 0
100 100 100 100 100 100 100 100 100 100 100 100 100 100 83 92 34 5 4 5 5 5 5 5 0 0 1 0 4 5 5 65 91 94 73 19 5 5 0 0 0 0 0 0 0 0 0 0 0
100 100 100 100 85 98 96 98 100 100 83 79 49 84 38 5 4 5 28 43 5 5 2 0 0 0 0 0 0 1 5 63 54 10 5 5 5 5 0 0 0 0 0 0 0 0 0 0 0
100 66 5 10 84 92 31 18 100 99 12 5 5 5 5 5 46 92 58 5 4 0 0 0 0 0 0 5 5 5 5 5 5 5 5 5 5 1 0 0 0 0 0 0 0 0 0 0 0
73 92 92 46 6 37 16 5 87 100 56 5 5 5 5 5 5 4 3 0 0 0 0 0 3 5 5 5 5 5 5 4 2 0 0 0 0 0 0 0 0 0 0 0 0 0 0 0 0
24 5 5 23 26 5 8 29 61 27 5 5 5 5 5 2 0 0 0 0 0 0 0 0 1 4 5 5 5 4 0 0 0 0 0 0 0 0 0 0 0 0 0 0 0 0 0 0 0
62 46 12 35 59 50 10 5 31 23 5 5 5 5 2 0 0 0 0 0 0 0 0 5 5 22 69 32 5 5 0 0 0 0 0 0 0 0 0 0 0 0 0 0 0 0 0 0 0
12 5 5 5 5 42 28 5 5 4 4 5 3 0 0 0 0 0 0 5 5 42 85 98 97 46 6 4 0 0 0 0 0 0 0 0 0 0 0 0 0 0 1 2 1 3 1 1 0
12 5 5 5 4 2 0 0 0 0 0 0 0 0 0 0 0 0 1 4 5 5 5 1 0 0 0 0 0 0 0 0 0 0 0 0 0 0 0 0 0 0 2 0 0 0 2 1 2
1 2 0 0 0 0 0 0 0 0 0 0 0 0 0 1 4 4 1 1 0 0 0 0 0 0 0 0 0 0 0 0 0 0 0 0 0 0 0 0 0 2 3 3 5 5 5 5 5
0 0 0 0 0 0 0 0 0 0 0 0 2 5 5 5 2 4 5 5 0 0 0 0 0 0 0 0 0 0 0 0 0 0 0 0 0 0 0 0 2 5 5 5 5 5 5 5 5

GFSSGP_prec_cloud_057.txt.gz
Cloud_Cover
19 50 63 92 59 61 100 96 100 100 93 78 24 30 88 96 40 10 5 5 5 6 5 4 5 12 13 19 0 0 11 1 0 0 0 0 0 0 30 11 9 8 17 6 11 10 13 2 9
25 12 28 42 5 70 100 8 5 37 100 87 39 26 39 94 83 36 36 32 5 3 5 5 1 0 3 0 0 0 7 1 0 0 0 0 5 0 0 17 28 56 16 23 17 15 0 0 8
65 5 5 67 18 19 56 5 5 5 35 87 65 36 7 6 17 13 5 4 1 5 5 5 5 5 7 0 0 0 0 9 0 0 0 0 0 0 3 0 1 1 32 24 23 18 0 0 0
5 5 23 5 78 12 5 5 5 5 5 5 22 5 5 5 5 5 4 4 5 5 3 5 2 0 0 0 0 0 0 0 0 0 0 0 0 0 0 0 0 0 0 0 0 25 3 0 0
5 4 28 9 13 93 98 65 100 32 5 2 4 5 10 5 5 5 5 5 5 5 5 3 3 0 0 0 0 0 1 0 0 0 0 0 0 0 0 0 0 0 0 0 0 0 8 0 0
23 5 5 5 5 5 5 5 34 100 5 5 5 5 5 5 1 1 4 5 5 5 5 5 2 0 0 0 0 0 2 0 0 0 0 0 0 0 0 0 0 0 0 0 0 0 0 3 0
5 5 2 5 5 6 5 5 5 4 2 5 5 5 2 5 3 5 5 5 5 5 1 0 0 0 0 16 0 2 0 0 0 0 0 0 0 0 0 0 0 0 0 1 0 0 0 2 0
0 5 2 0 0 0 2 5 5 5 4 0 5 5 5 5 5 5 4 3 59 2 0 2 0 0 0 28 4 17 75 3 14 1 0 0 31 85 0 0 0 0 0 0 0 0 0 0 0
0 8 16 2 0 0 0 0 0 0 0 0 0 0 3 5 4 8 5 26 11 24 1 3 7 10 13 24 34 24 25 79 13 1 0 11 69 50 4 1 13 2 0 0 0 0 0 0 0
0 8 71 36 4 5 4 0 0 0 0 3 3 2 0 3 9 62 98 77 5 0 11 0 9 77 36 77 79 70 22 21 55 83 81 56 32 5 5 29 30 30 2 0 0 0 0 0 0
1 0 39 18 5 5 5 5 5 3 0 3 5 5 5 5 48 50 45 5 5 5 5 42 80 100 93 44 78 36 87 73 62 77 98 100 100 98 87 100 100 100 100 100 31 36 9 0 0
4 0 0 5 5 5 5 8 5 4 5 5 4 4 5 5 5 10 32 56 56 27 6 12 8 5 5 5 4 5 5 5 5 4 26 7 19 74 3 91 100 100 99 100 100 100 100 48 6
5 3 2 0 0 5 5 2 0 0 0 1 1 4 5 5 3 0 2 5 12 8 40 13 9 5 5 5 5 4 0 4 5 5 5 5 2 0 0 0 0 2 88 79 4 32 85 100 100
5 5 5 5 4 43 4 0 0 1 0 3 0 0 5 5 5 4 4 3 5 6 6 5 5 5 5 5 5 5 10 5 5 5 2 0 0 0 0 0 0 0 0 0 0 0 0 3 10
5 44 46 14 66 100 23 5 2 6 5 6 5 5 5 5 5 5 2 5 5 5 5 5 5 5 5 5 5 59 77 59 6 5 5 0 0 0 0 0 0 0 0 0 0 0 0 0 0
5 5 5 5 52 25 93 62 5 5 5 6 42 6 5 5 5 5 5 4 5 4 5 5 4 5 5 7 13 5 5 6 18 5 5 0 0 0 0 5 5 5 0 0 0 1 0 0 0
66 9 5 1 5 5 17 13 5 5 5 6 5 5 5 5 5 5 6 24 5 5 6 19 6 31 41 10 32 19 5 5 5 5 0 0 0 0 4 5 5 5 4 0 5 5 5 3 0
70 96 62 27 5 5 5 6 5 5 8 5 5 5 5 5 5 5 53 55 78 97 73 42 96 92 23 4 3 2 5 5 1 0 0 0 0 4 5 5 5 5 5 5 5 5 5 5 2
100 100 100 100 100 96 88 100 6 41 100 70 96 14 27 63 5 8 98 100 97 77 75 14 5 0 0 0 2 1 0 0 0 0 0 2 5 17 46 12 5 5 5 5 5 5 4 0 0
100 100 100 100 100 100 100 100 100 39 90 20 21 9 39 16 53 68 38 45 100 82 66 5 1 0 0 0 0 0 0 0 0 0 5 5 5 5 5 11 12 5 5 3 0 0 0 0 0
100 100 100 100 100 100 100 100 100 76 82 100 99 92 99 100 100 100 100 95 60 45 5 2 3 3 0 0 0 0 0 0 4 5 5 5 5 5 5 12 5 5 1 0 0 0 0 0 0
100 100 100 100 100 100 100 100 100 100 65 78 94 100 100 100 66 82 99 72 5 5 5 5 4 0 0 0 0 0 0 0 2 0 5 5 5 5 5 5 5 5 0 0 0 0 0 0 0
100 100 100 100 100 100 100 66 100 100 100 92 100 100 72 31 64 55 34 5 5 5 5 0 1 0 0 0 0 0 0 0 3 5 5 6 5 5 5 2 0 0 0 0 0 0 0 0 0
100 100 100 100 100 100 100 55 100 100 100 100 100 100 33 21 29 5 5 5 5 5 0 0 0 0 0 0 0 2 5 5 5 1 3 4 1 0 0 0 0 0 0 0 0 0 0 0 0
100 100 100 100 100 100 100 100 100 100 100 95 52 25 68 50 30 8 5 5 2 0 0 0 0 0 0 0 1 4 5 5 5 2 0 0 0 0 0 0 0 0 0 0 0 0 0 0 0
93 100 100 100 100 100 100 100 100 100 100 87 77 15 5 5 5 2 0 0 0 0 0 0 0 4 5 5 5 5 5 0 0 0 0 0 0 0 0 0 0 0 0 0 0 0 0 0 0
79 91 64 77 98 100 100 99 83 85 25 5 5 5 4 0 0 0 0 0 0 0 0 0 5 2 0 0 0 0 0 0 0 0 0 0 0 0 0 0 0 0 0 0 0 0 0 0 0
7 25 24 41 58 87 70 15 8 39 8 5 2 0 0 0 0 0 0 0 0 1 5 1 0 0 0 0 0 0 0 0 0 0 0 0 0 0 0 0 0 0 0 0 0 0 2 1 0
5 5 5 5 5 4 5 4 4 0 0 0 0 0 0 0 0 0 0 3 5 5 0 0 0 0 0 0 0 0 0 0 0 0 0 0 0 0 0 0 0 2 2 4 5 5 5 5 5
0 0 0 0 0 0 0 0 0 0 0 0 0 0 0 0 3 5 5 5 5 0 0 0 0 0 0 0 0 0 0 0 0 0 0 0 0 0 0 0 4 5 5 6 86 99 96 8 5

GFSSGP_prec_cloud_060.txt.gz
Cloud_Cover
10 39 36 100 100 100 100 100 100 100 54 36 78 94 87 98 71 72 18 5 5 32 38 5 5 9 10 5 2 5 1 0 0 0 0 8 0 6 83 14 11 5 5 18 1 2 1 1 5
100 88 100 80 100 100 100 96 94 100 100 100 92 100 63 26 33 5 5 3 3 4 2 11 5 5 6 5 5 0 4 6 0 0 0 1 0 0 9 16 0 2 80 47 21 10 8 0 2
85 64 47 5 17 87 60 58 9 10 47 10 62 66 46 14 6 5 5 5 5 4 4 5 5 5 5 2 0 0 3 7 0 0 0 0 0 0 0 0 0 0 37 8 22 12 7 1 1
5 30 96 5 57 5 56 61 6 5 5 52 32 5 4 30 11 5 5 2 5 5 5 5 2 5 0 5 0 5 11 0 0 0 0 0 0 0 0 0 0 0 0 0 0 7 20 0 0
44 23 75 71 77 48 5 31 5 5 5 5 5 5 5 5 5 5 5 5 2 3 5 4 3 0 4 0 0 2 0 0 0 0 0 0 0 0 0 0 0 0 0 0 0 0 25 60 2
5 12 5 6 37 60 46 52 53 5 5 5 5 5 5 5 5 4 4 5 1 0 0 0 2 2 0 3 5 5 5 3 0 0 0 0 0 0 0 0 0 0 0 0 0 0 0 6 19
53 5 5 5 5 5 74 47 26 5 4 6 12 5 2 0 1 0 0 0 5 4 0 0 1 1 0 3 5 3 0 2 39 27 11 1 0 18 0 0 0 0 0 0 0 0 0 0 0
31 74 5 5 5 5 14 82 64 36 6 5 4 0 0 0 0 0 0 3 10 17 0 0 0 0 1 19 6 2 6 7 90 95 97 47 7 60 16 0 0 0 5 0 0 0 0 0 0
5 21 5 5 5 5 5 5 9 9 49 44 5 5 5 5 4 0 0 11 8 7 43 28 40 38 29 15 90 53 46 73 8 6 22 15 36 84 99 47 49 84 81 28 5 0 0 0 0
5 5 12 10 5 5 5 1 5 5 4 4 5 5 0 0 0 13 91 42 6 18 49 26 32 52 6 22 100 96 98 82 100 100 100 100 97 20 94 8 94 90 100 61 67 21 0 0 0
5 5 0 5 5 4 5 5 3 2 2 4 4 1 4 4 0 5 5 5 9 45 64 5 76 99 92 9 37 22 12 10 1 5 1 0 4 17 70 79 40 100 100 100 100 100 92 9 0
5 5 2 1 5 3 5 5 5 5 5 5 4 3 5 5 5 5 27 12 57 20 39 57 100 71 8 5 5 5 5 2 0 1 5 5 5 5 5 5 5 4 2 0 40 57 100 54 95
5 8 32 9 5 0 0 4 5 4 5 5 5 5 4 4 5 5 5 5 5 5 35 37 39 7 5 5 5 0 0 0 1 5 5 5 5 5 5 5 0 0 0 0 0 0 0 0 0
8 6 76 78 52 58 4 1 0 0 0 0 0 0 0 5 5 5 5 5 5 5 5 5 5 5 5 5 5 4 5 5 5 12 5 5 5 3 2 0 0 0 0 0 0 0 0 0 0
27 9 7 69 77 100 33 5 3 2 0 0 4 5 5 3 2 3 4 5 2 5 2 5 5 5 5 5 5 55 5 33 59 44 0 0 0 0 0 0 0 0 0 0 5 5 12 14 4
100 65 28 5 5 60 97 75 5 5 5 5 5 5 5 5 5 2 0 0 0 0 0 0 3 2 1 20 51 6 37 5 1 0 3 5 5 0 0 0 0 0 0 1 5 5 5 7 18
100 100 100 7 5 5 5 10 5 21 12 7 5 5 5 5 5 3 0 2 0 3 0 3 5 5 36 7 5 3 5 5 5 3 1 1 0 0 0 0 0 0 4 5 5 5 5 5 5
100 100 100 100 16 5 28 66 5 5 5 5 5 5 5 5 5 5 8 5 5 5 5 5 5 5 5 5 5 5 5 5 0 0 0 0 0 0 0 0 0 3 5 5 5 1 0 4 5
100 100 100 87 59 70 97 100 5 5 5 5 5 5 5 45 51 63 100 28 21 27 32 11 36 8 5 5 5 5 5 0 0 0 0 0 0 0 0 0 0 5 5 5 5 5 5 5 1
100 100 100 100 75 100 100 100 100 90 76 67 10 16 6 5 60 100 99 25 5 5 25 13 5 5 5 5 5 5 0 0 0 0 0 0 0 0 0 0 0 0 4 5 3 0 0 0 0
100 100 100 100 100 100 100 100 100 66 20 62 62 50 44 97 85 27 5 5 5 12 5 5 5 5 5 5 5 0 0 0 0 0 0 0 0 0 0 0 0 0 0 0 0 0 0 0 0
100 100 100 100 100 100 100 100 100 100 100 100 100 100 100 100 94 92 95 11 66 62 70 38 5 5 5 5 4 0 0 0 0 0 0 0 0 0 0 0 0 0 0 0 0 0 0 0 0
100 100 100 100 99 100 100 100 100 100 100 100 100 100 100 100 86 10 55 100 100 100 81 24 10 5 5 0 0 0 0 0 0 0 0 0 1 0 0 0 0 0 0 0 0 0 0 0 0
100 100 100 100 100 98 100 100 100 100 100 100 100 100 100 100 100 98 100 100 100 96 8 5 5 0 0 0 0 0 0 0 0 1 3 5 5 0 0 0 0 0 0 0 0 0 0 0 0
98 100 100 100 100 100 100 100 100 100 100 100 100 100 100 100 100 100 100 100 80 5 5 5 0 0 0 0 0 0 2 4 5 5 5 4 0 0 0 0 0 0 0 0 0 0 0 0 0
69 100 80 87 100 100 100 100 100 100 100 100 100 100 100 100 100 100 82 8 5 5 2 0 0 0 0 4 5 5 5 0 0 0 0 0 0 0 0 0 0 0 0 0 0 0 0 0 0
50 46 22 5 42 100 100 100 99 100 100 100 100 100 100 99 79 5 5 5 4 0 0 0 0 4 3 0 0 0 0 0 0 0 0 0 0 0 0 0 0 0 0 0 0 0 0 0 0
5 5 5 5 5 5 50 48 69 92 92 97 88 84 34 6 4 4 2 0 0 0 0 4 2 0 0 0 0 0 0 0 0 0 0 0 0 0 0 0 0 0 0 0 1 5 4 5 5
3 5 5 3 1 0 5 5 5 2 1 1 1 1 0 0 0 0 0 0 1 5 5 0 0 0 0 0 0 0 0 0 0 0 0 0 0 0 0 0 0 0 0 1 5 5 5 6 61
0 0 0 0 0 0 0 0 0 0 0 0 0 0 0 0 0 0 2 5 5 4 0 0 0 0 0 0 0 0 0 0 0 0 0 0 0 0 0 0 4 5 5 5 5 5 78 100 100

GFSSGP_prec_cloud_066.txt.gz
Cloud_Cover
4 5 89 100 100 100 100 100 100 100 100 90 96 6 5 5 5 5 5 5 5 5 5 0 0 0 6 1 2 0 0 0 0 0 2 0 0 11 15 2 24 18 43 15 3 1 7 7 5
0 5 8 86 89 100 100 100 100 100 100 100 100 100 76 5 5 19 52 6 3 5 0 3 5 17 2 4 16 8 0 0 0 0 0 0 0 0 0 0 0 58 96 61 38 18 5 2 12
3 0 79 40 59 77 100 100 100 100 100 100 100 100 100 100 94 86 45 5 5 5 5 3 0 6 0 0 0 3 0 0 0 0 0 0 0 0 0 0 0 0 14 3 4 26 15 8 5
8 16 5 5 5 8 57 96 100 100 100 100 100 100 100 73 26 6 5 0 5 3 1 0 0 4 0 0 0 0 0 0 0 0 0 0 0 0 0 0 0 0 0 0 0 0 83 18 13
84 5 45 8 44 36 64 13 99 91 100 100 93 90 81 6 5 5 5 5 5 0 0 0 2 6 0 0 0 0 0 0 0 0 0 4 0 0 0 0 0 0 0 0 0 0 0 70 100
86 22 45 69 58 96 39 60 20 31 18 27 5 23 13 33 5 5 4 0 0 0 3 12 1 0 1 0 0 0 5 12 12 0 9 6 0 0 0 0 0 0 0 0 0 0 0 0 9
11 68 52 77 84 71 77 22 6 41 67 45 5 5 6 5 5 5 5 4 2 0 10 68 71 26 0 0 2 6 28 21 44 55 65 63 47 26 13 0 8 24 14 11 15 4 0 0 0
5 30 78 42 76 66 96 88 78 41 84 63 10 5 5 5 5 5 12 4 5 5 10 85 100 84 74 90 22 83 27 72 6 28 11 17 74 39 42 51 69 58 30 36 43 0 0 0 0
5 5 51 37 73 85 59 45 91 83 71 42 28 30 32 36 38 5 6 5 5 7 56 43 88 67 82 66 66 73 2 82 25 73 87 48 0 1 62 61 57 4 18 4 0 0 0 0 0
38 24 5 8 43 77 90 27 5 35 64 50 49 6 5 5 7 5 5 33 5 8 51 70 57 71 69 1 30 100 99 90 28 1 0 0 5 3 0 2 10 2 4 5 29 0 0 0 0
85 46 24 5 58 57 75 72 44 5 5 65 75 14 5 5 5 5 31 23 5 17 0 0 11 65 16 3 51 7 13 6 5 2 0 5 4 0 1 0 5 5 5 5 0 0 0 0 0
88 71 62 9 5 34 51 60 74 16 5 5 75 28 5 5 5 5 6 4 3 0 0 0 0 2 13 30 5 5 5 5 5 5 5 5 4 2 5 5 5 5 0 0 0 0 0 0 0
83 100 100 88 21 5 3 5 5 5 5 5 5 8 9 5 5 3 0 0 2 18 28 45 46 57 13 5 5 5 4 0 2 5 5 5 1 4 5 5 5 1 0 5 0 4 0 0 0
97 100 100 100 98 5 5 5 4 0 1 5 5 5 4 3 4 5 2 0 7 13 19 4 5 5 5 5 5 3 2 5 5 5 4 5 5 5 5 5 5 5 5 0 5 2 0 0 0
100 100 100 100 100 99 9 5 5 0 5 5 0 0 0 0 0 2 5 5 5 5 5 5 5 5 5 5 5 5 5 5 5 6 20 5 5 5 5 5 5 4 0 3 5 0 0 0 0
100 100 100 100 100 100 100 100 5 5 5 5 5 5 5 5 5 11 5 7 30 8 5 5 5 5 5 5 5 11 52 46 68 95 46 5 5 5 5 5 5 5 5 5 0 0 0 0 0
100 100 100 96 90 100 100 100 100 95 48 4 5 5 5 5 5 5 5 5 5 5 5 5 5 5 15 55 14 56 50 100 100 80 28 41 5 5 28 11 5 5 5 5 0 0 0 0 0
100 100 100 98 43 88 100 100 100 100 100 100 65 51 46 39 33 32 5 5 5 5 5 5 5 9 69 98 71 83 98 76 44 41 89 62 5 64 7 37 5 5 5 0 0 0 0 0 0
100 100 100 100 100 74 99 100 100 100 100 100 100 100 100 100 100 90 70 61 81 58 51 32 86 100 100 100 100 82 22 33 84 100 97 78 100 37 74 8 5 1 0 0 0 0 0 0 0
82 100 100 100 100 100 100 100 84 15 76 94 82 83 96 83 23 5 5 5 5 7 81 81 87 89 61 12 5 16 83 98 100 100 100 89 16 52 8 5 0 0 0 0 0 0 0 0 0
65 100 100 100 100 100 100 100 91 6 5 5 5 20 71 32 14 23 53 47 10 5 5 10 9 26 48 70 99 100 100 100 97 35 9 82 53 3 0 0 0 0 0 0 0 0 0 0 0
100 32 83 100 100 100 100 100 100 33 62 6 5 5 5 6 60 33 70 37 5 5 8 45 98 100 100 100 100 100 92 22 18 92 38 2 0 0 0 0 0 0 0 0 0 0 0 0 0
11 5 5 63 100 100 100 100 100 100 100 78 18 23 6 35 34 64 8 7 5 23 53 74 92 97 97 93 58 41 67 84 5 4 0 0 0 0 0 0 0 0 0 0 0 0 0 0 0
6 5 4 5 34 100 100 100 100 100 100 100 99 89 97 100 100 100 60 88 97 100 100 100 99 100 100 95 62 10 3 0 0 0 0 0 0 0 4 5 5 4 0 0 0 0 0 0 0
5 5 2 5 6 42 100 100 100 100 100 100 100 100 100 100 100 100 100 100 100 100 91 65 33 9 5 5 2 0 0 0 0 0 0 3 5 5 5 3 0 0 0 0 0 0 0 0 0
0 0 0 5 5 5 13 86 99 100 100 100 100 99 100 100 99 100 88 59 23 16 6 5 1 0 0 0 0 0 0 0 2 5 5 5 4 0 0 0 0 5 5 1 0 0 0 0 0
0 0 0 0 5 5 5 5 28 19 45 54 73 92 100 98 63 6 5 5 5 1 0 0 0 0 0 0 0 0 5 5 5 4 1 5 5 0 0 4 4 0 0 0 0 0 0 1 4
0 0 0 0 0 1 3 5 5 5 5 21 64 86 46 9 5 4 1 0 0 0 0 0 0 0 1 5 5 5 5 3 2 5 5 5 5 2 0 0 0 0 0 0 0 5 5 5 16
0 0 0 0 0 0 0 1 5 5 5 8 9 3 1 0 0 0 0 0 0 0 0 1 7 5 5 5 5 5 5 5 5 5 2 0 0 0 0 0 0 0 0 0 5 5 15 47 87
0 0 0 0 0 2 0 5 5 5 3 0 0 0 0 0 0 0 0 0 1 5 24 9 5 13 18 41 88 78 12 5 5 0 0 0 0 0 0 0 0 0 4 5 5 40 77 100 100

GFSSGP_prec_cloud_072.txt.gz
Cloud_Cover
6 21 5 13 5 100 100 95 100 100 100 100 100 100 100 100 100 57 4 5 5 5 5 8 6 5 2 5 1 0 0 0 0 0 0 0 0 0 0 1 88 96 81 68 6 0 0 2 0
3 12 23 5 24 100 100 100 84 72 100 100 100 100 100 100 14 11 66 5 5 11 5 9 5 5 5 5 0 0 0 0 0 0 0 0 0 0 0 0 0 0 0 31 79 18 2 1 1
0 5 10 7 50 99 100 100 100 97 100 100 100 100 94 100 100 100 96 88 80 19 49 7 10 5 5 5 3 0 0 0 0 0 0 0 0 0 0 0 0 0 0 0 0 4 11 9 3
0 0 59 5 90 99 84 100 100 100 100 100 100 100 100 100 100 100 100 100 100 100 100 86 45 78 5 5 5 9 0 0 0 0 0 0 0 0 0 0 0 0 0 0 0 0 0 0 26
5 0 5 92 84 100 8 5 5 99 100 100 100 100 100 100 100 100 100 100 100 100 100 60 98 24 12 11 5 1 0 0 0 0 2 0 0 1 0 1 0 5 8 0 0 0 0 0 0
71 4 0 22 74 96 8 4 2 5 41 100 100 100 100 100 100 100 100 100 100 100 100 58 5 12 6 19 18 10 12 14 27 32 11 7 10 8 9 75 72 53 87 30 5 3 0 0 0
100 14 5 65 99 96 64 5 4 0 4 2 8 90 100 100 100 100 100 100 100 100 11 34 5 5 5 10 22 18 95 93 96 100 94 14 52 46 89 9 84 100 61 7 0 0 0 0 0
100 12 5 5 100 92 51 14 6 5 5 5 5 5 5 40 98 100 99 100 82 71 32 27 32 5 5 17 40 15 4 3 5 5 1 0 0 0 0 0 0 0 0 0 0 0 0 0 0
100 100 59 7 5 6 77 5 34 5 5 5 5 5 71 1 4 4 11 33 91 85 45 100 5 48 38 43 14 5 5 5 22 12 0 0 0 0 0 0 0 0 0 0 0 0 0 0 0
100 100 94 55 89 100 11 8 7 16 5 5 32 16 5 9 5 5 6 92 100 81 58 47 93 52 29 43 21 10 5 5 2 0 0 0 0 0 0 1 0 0 0 0 0 0 0 0 0
100 100 100 97 22 100 5 5 48 11 51 6 5 40 94 99 54 5 36 38 6 60 96 99 99 87 90 97 75 53 5 5 1 0 0 0 0 0 4 0 0 0 0 0 0 0 0 0 0
100 100 100 100 100 100 14 5 5 5 30 5 5 50 5 43 24 67 48 97 100 98 73 70 79 82 50 47 34 4 3 2 0 5 4 0 0 4 0 0 0 0 5 0 0 0 0 1 5
100 100 100 100 100 100 78 11 5 5 5 10 13 5 9 5 5 8 58 99 97 76 59 7 7 17 19 5 0 0 0 0 0 1 0 2 5 4 1 4 2 0 0 0 2 3 3 5 13
96 100 100 100 100 100 100 84 30 5 5 6 13 45 6 5 5 5 22 16 15 5 5 5 28 4 1 0 0 0 0 5 0 1 5 5 5 5 5 0 0 0 2 5 5 8 62 99 100
85 100 100 100 100 100 100 100 98 98 40 5 11 35 31 5 5 5 4 3 3 2 1 0 21 37 5 2 2 25 5 8 46 45 9 5 3 4 1 3 5 5 5 12 81 100 100 100 100
7 100 100 100 100 100 100 100 100 92 88 50 79 100 91 83 59 15 5 5 10 14 6 5 29 100 53 72 100 100 100 97 28 10 5 5 5 6 5 30 57 98 100 100 100 100 100 100 100
4 11 100 100 100 100 100 100 100 100 100 100 100 100 100 100 100 100 100 100 100 100 100 100 75 82 100 100 100 87 37 5 5 5 14 42 53 98 84 93 100 100 100 100 100 100 100 98 18
4 5 95 100 100 100 99 100 100 100 100 100 100 99 96 100 100 100 100 100 100 100 100 100 100 92 69 5 9 7 5 10 62 96 100 100 100 100 89 56 99 72 42 73 34 6 5 5 5
5 49 59 100 100 100 100 97 100 100 100 100 96 100 100 100 100 100 100 100 100 100 98 100 56 28 84 72 97 100 100 100 100 100 100 100 100 96 5 21 27 75 100 100 90 5 3 0 0
7 79 36 29 93 100 100 100 100 100 100 100 97 100 100 89 98 100 100 100 100 100 100 100 100 100 100 100 100 99 86 100 100 100 100 100 100 100 100 100 100 96 84 50 2 0 0 0 0
5 75 71 15 6 78 97 100 100 100 100 100 100 100 100 100 22 40 100 100 100 100 100 100 100 100 100 95 74 63 100 100 100 100 100 100 100 94 14 5 1 0 0 0 0 0 0 0 0
7 0 1 15 4 5 5 23 100 100 100 100 100 100 100 100 100 95 99 100 100 100 100 100 100 100 100 100 100 100 100 100 100 100 100 100 99 42 5 1 0 0 0 0 0 0 0 0 0
2 5 2 2 5 5 3 8 99 67 100 100 100 99 100 100 100 100 100 100 100 100 100 100 100 100 100 100 100 100 100 100 95 32 7 53 8 0 0 0 0 0 0 0 0 0 0 0 0
2 33 5 5 17 4 84 12 26 44 60 100 100 85 100 100 100 100 100 100 100 100 100 100 100 100 100 100 100 100 72 38 15 4 0 0 0 0 0 0 0 0 0 0 0 0 0 0 0
0 25 5 5 4 4 4 32 0 30 18 3 30 85 100 100 100 100 100 100 100 95 89 100 100 100 100 100 39 2 1 0 0 0 0 0 0 0 0 0 0 0 0 0 0 0 0 0 0
97 60 53 5 33 7 22 75 99 33 5 0 0 5 11 11 8 6 5 6 5 5 5 5 6 5 3 0 0 0 0 0 0 0 1 2 4 4 5 5 5 5 5 5 5 5 2 0 0
17 94 100 97 100 58 97 100 98 11 0 0 0 0 4 5 5 12 5 5 4 3 0 0 0 0 0 0 0 0 2 2 5 5 5 5 5 5 5 5 5 5 5 5 5 5 5 5 5
92 96 100 100 100 97 99 40 4 31 2 0 0 0 0 0 0 0 0 0 0 0 0 0 0 0 0 0 2 2 5 4 4 4 4 5 3 2 1 3 4 5 4 5 4 0 1 0 0
100 100 100 100 100 100 100 100 100 95 78 5 0 0 0 0 0 0 0 0 0 0 0 0 0 0 0 0 0 0 0 0 0 0 0 0 0 0 0 0 0 0 0 0 0 0 0 0 3
100 100 100 100 100 100 100 100 25 1 0 0 0 0 0 0 0 0 0 0 0 0 0 0 0 0 0 0 0 0 0 0 0 0 0 0 0 0 0 1 4 4 4 5 4 5 5 5 16

GFSSGP_prec_cloud_075.txt.gz
Cloud_Cover
4 5 5 5 4 5 56 93 6 23 64 98 100 86 100 100 100 100 100 99 5 3 17 5 9 5 5 1 0 5 0 0 1 0 0 0 0 0 0 1 15 74 96 100 29 5 0 4 0
5 3 4 3 13 84 19 86 6 7 9 7 100 85 100 100 100 100 100 43 1 46 30 5 5 5 5 5 5 5 3 4 3 0 0 0 0 0 0 0 0 0 0 10 29 8 0 0 0
0 3 0 3 77 42 71 6 98 67 46 5 96 95 100 100 100 100 100 92 5 84 90 91 40 64 24 8 5 5 5 5 5 0 0 0 0 0 0 0 0 0 0 0 0 0 4 0 7
5 2 0 3 96 17 13 5 5 66 100 99 91 100 100 99 100 100 100 100 100 100 100 100 100 100 100 29 13 30 5 5 0 0 1 0 0 0 0 0 1 0 0 0 0 0 0 0 0
6 5 0 10 68 20 34 10 47 5 16 98 98 99 100 86 91 100 100 100 100 100 100 100 100 100 88 95 75 5 3 8 10 0 1 2 50 39 10 60 48 40 27 4 0 0 0 0 0
21 42 52 0 13 80 76 7 6 5 48 100 98 98 100 98 10 32 100 100 100 100 100 100 100 100 100 100 30 12 9 22 19 17 10 28 38 87 100 100 100 100 88 9 0 0 0 0 0
100 98 100 35 21 15 58 100 54 0 1 8 21 53 93 100 100 100 100 100 100 100 100 100 100 100 100 82 7 80 96 36 24 93 60 10 64 48 8 4 0 0 0 0 0 0 0 0 0
100 100 100 100 98 22 98 91 33 5 5 5 5 0 0 40 38 97 100 100 100 100 100 100 100 100 59 53 17 16 5 5 5 5 5 5 5 5 0 0 0 0 0 0 0 0 0 0 0
100 100 100 100 100 78 26 16 5 5 5 7 5 5 4 0 0 1 16 45 100 100 100 100 98 70 29 5 53 22 41 5 5 5 12 5 5 2 0 0 0 0 0 0 0 0 0 0 0
96 100 100 92 100 100 97 100 5 5 1 21 25 5 5 5 2 0 0 89 20 5 2 5 41 5 5 5 6 5 6 5 6 11 6 5 5 0 0 0 0 0 3 1 0 0 0 0 0
20 100 100 97 100 100 100 100 100 16 5 3 5 5 6 77 5 5 5 84 6 5 11 7 22 20 19 5 25 65 13 23 25 7 5 5 2 0 0 0 0 4 2 0 5 0 0 0 5
5 77 99 100 100 100 100 100 100 29 5 5 5 5 5 5 37 5 5 85 91 85 97 96 97 44 26 15 37 95 100 40 71 7 4 0 0 5 6 21 10 5 5 0 0 0 2 5 5
21 5 98 99 100 100 100 100 100 50 5 5 7 5 5 3 5 5 5 17 19 68 6 10 22 70 58 40 61 94 91 57 42 6 6 5 29 81 100 47 14 5 4 5 2 5 5 5 18
5 5 86 100 100 100 100 100 100 99 100 96 70 6 50 7 5 4 5 5 2 0 3 6 91 16 2 0 4 5 5 6 33 64 92 100 100 53 5 5 5 5 5 5 5 5 46 83 100
27 88 90 100 100 100 100 100 100 100 94 98 100 100 95 91 72 10 5 5 38 5 1 5 10 5 6 7 5 11 96 32 98 100 100 18 9 6 5 5 5 5 5 5 8 57 96 100 100
55 83 97 100 100 100 100 100 100 100 100 94 100 99 99 100 100 95 22 97 70 57 10 8 65 93 97 50 97 100 100 100 93 10 58 59 31 34 16 5 5 5 51 100 100 100 92 5 10
38 69 98 100 100 100 100 100 100 100 100 100 100 100 100 100 100 88 99 100 98 100 100 98 100 100 100 100 100 100 100 100 100 66 40 58 82 56 6 65 86 100 100 100 100 100 97 99 100
70 19 52 36 92 100 100 100 100 100 100 100 100 100 100 100 100 100 100 57 70 88 100 100 100 100 100 100 100 100 100 100 86 96 99 100 99 94 100 100 100 100 100 100 100 100 100 100 44
5 4 5 5 5 62 100 100 100 100 100 100 100 100 100 100 94 100 97 100 100 100 100 100 100 100 100 100 100 100 100 100 100 100 100 100 100 100 100 100 100 100 100 100 100 100 100 97 21
5 0 0 2 5 5 58 100 100 100 100 100 95 100 100 77 94 100 100 77 96 96 100 100 100 100 100 100 100 100 100 100 100 100 100 100 100 100 100 100 100 100 100 100 87 8 5 5 4
0 0 0 5 12 75 11 78 100 100 100 100 100 100 100 85 74 96 100 100 100 86 100 100 100 100 100 100 100 100 100 100 100 100 100 100 100 100 100 100 100 69 8 5 7 4 2 0 0
0 46 6 6 47 3 2 5 100 42 81 100 100 100 100 100 100 100 100 100 100 69 27 10 100 100 100 100 100 100 100 100 100 100 100 100 100 100 100 100 86 52 2 0 0 0 0 0 0
5 0 2 53 5 1 0 0 4 0 1 54 98 100 100 100 9 95 98 98 82 72 99 100 100 100 100 100 100 100 100 100 100 100 100 99 88 28 5 4 0 0 0 0 0 0 0 0 0
38 5 37 34 67 3 0 0 0 0 0 34 100 98 72 37 78 100 100 100 100 100 100 100 100 100 100 100 100 90 73 52 15 1 0 0 0 0 0 0 0 0 0 0 1 2 1 0 0
99 28 25 12 15 0 0 0 0 0 0 0 78 100 100 100 70 6 40 93 94 90 85 80 32 4 3 5 5 5 3 0 0 0 0 0 0 0 0 2 2 3 5 4 0 1 3 5 5
100 99 94 65 4 0 0 0 0 0 0 2 4 4 17 7 3 4 0 0 0 0 0 0 0 0 0 0 0 0 0 0 0 0 0 0 0 0 0 0 0 0 0 0 0 0 0 0 0
92 6 26 39 12 4 1 0 0 0 1 11 6 7 26 91 80 5 0 0 0 0 0 0 0 0 0 0 0 0 0 0 0 0 0 0 0 0 0 0 0 0 0 0 0 0 0 0 0
100 100 99 56 34 5 25 0 0 1 15 11 8 36 97 33 22 28 15 5 0 0 0 0 0 0 0 0 0 0 0 0 0 0 0 0 0 0 0 0 0 0 0 0 0 0 2 3 6
100 84 11 15 5 67 23 4 30 30 74 100 100 100 100 100 100 98 54 5 0 1 1 0 0 0 0 0 0 0 0 0 0 0 0 0 0 0 0 0 0 0 2 5 5 54 55 46 19
57 34 14 3 90 100 89 46 99 100 100 100 100 100 100 100 100 97 7 5 5 1 0 0 0 0 0 0 0 0 0 0 0 0 0 0 0 0 0 0 0 4 5 15 6 79 99 38 50

GFSSGP_prec_cloud_078.txt.gz
Cloud_Cover
0 0 5 5 2 0 2 4 41 6 9 7 74 71 100 100 100 100 100 100 100 100 54 5 31 5 5 5 5 4 3 2 2 0 0 0 0 0 0 1 17 88 100 88 23 5 0 0 0
0 5 1 7 5 5 18 5 3 4 72 5 18 67 78 100 100 100 100 100 100 100 16 5 5 5 28 68 22 5 5 4 0 2 5 0 0 0 0 0 0 0 0 5 17 10 4 3 0
0 0 0 12 55 95 5 5 5 4 71 6 5 15 5 99 100 100 83 100 100 99 63 34 7 58 88 100 100 27 5 5 5 5 5 0 0 0 0 0 0 0 0 0 0 1 0 0 0
5 1 0 3 23 5 24 5 5 4 0 72 32 5 5 84 100 100 100 80 100 100 100 57 61 75 100 100 100 100 21 5 6 6 5 0 0 0 0 2 95 56 0 0 0 0 0 0 0
84 7 5 5 5 5 5 5 5 5 5 5 57 100 17 6 96 100 100 93 100 100 100 100 100 100 100 100 100 100 100 100 100 12 20 87 5 34 37 43 87 100 24 2 1 0 0 0 0
100 98 13 5 9 4 1 4 3 5 24 5 3 36 99 75 95 73 85 97 100 100 87 80 100 100 100 100 100 100 100 69 12 44 7 31 10 93 100 98 78 22 0 0 0 0 0 0 0
100 100 95 5 5 38 9 44 5 19 5 5 5 5 22 71 100 100 99 94 100 100 100 100 100 100 100 100 100 100 100 100 100 68 51 28 18 18 1 0 0 0 0 0 0 0 0 0 0
54 100 100 98 6 39 44 12 5 69 5 5 5 1 3 81 99 100 100 100 100 100 100 100 100 100 100 100 100 100 100 100 30 17 70 5 5 5 5 5 5 0 0 0 0 0 0 0 0
2 80 100 89 86 7 93 97 17 81 100 39 94 5 0 5 5 5 4 1 13 18 88 100 100 100 100 100 100 90 94 100 64 5 5 5 5 7 5 5 5 5 0 1 2 5 0 0 1
0 23 100 91 82 42 45 100 100 62 79 43 12 72 5 1 5 5 5 5 11 2 0 2 14 12 7 6 13 5 5 10 5 5 5 5 53 59 28 10 5 3 5 7 15 5 5 0 0
0 0 23 6 83 100 100 100 100 100 100 77 5 5 5 5 5 5 7 47 5 5 5 4 11 5 5 5 5 5 7 5 10 7 41 59 49 65 27 6 5 91 100 100 31 9 5 5 4
0 5 2 5 12 91 100 59 98 86 100 100 100 18 5 5 5 1 5 6 42 22 16 5 5 5 5 5 5 5 5 27 56 22 5 5 5 4 5 28 100 100 98 38 10 23 5 5 5
5 24 24 38 84 64 91 100 100 98 100 78 100 99 71 30 32 29 5 5 5 7 41 62 70 33 9 38 9 4 4 4 0 2 5 5 22 71 100 100 100 94 40 58 44 16 13 5 5
78 51 99 5 60 98 51 93 100 98 96 85 100 100 100 44 5 32 64 48 56 54 72 83 50 26 30 61 23 5 5 5 5 27 76 100 100 100 100 84 39 8 53 99 92 23 64 6 5
100 16 42 14 5 100 100 100 100 100 100 100 100 100 100 100 92 63 67 91 89 27 28 42 73 22 18 6 5 5 80 98 100 100 100 100 100 100 94 47 18 38 99 25 30 94 98 86 53
100 100 73 88 39 100 100 100 100 100 100 100 78 89 70 16 84 70 27 100 100 77 57 28 100 100 94 91 83 100 100 100 100 100 94 88 14 36 97 100 99 96 74 29 68 77 71 68 100
57 100 100 100 100 97 100 100 100 100 100 100 100 81 53 40 65 82 100 100 100 94 73 96 90 54 28 5 8 58 87 92 98 48 75 69 100 80 90 90 90 99 100 97 64 100 100 100 100
22 82 100 100 100 100 100 100 100 100 100 100 100 100 91 71 63 90 100 91 81 17 30 14 32 68 29 5 5 64 79 33 27 80 81 100 100 100 97 96 94 100 100 100 100 100 100 100 100
100 19 93 100 100 98 71 100 100 100 100 100 100 100 73 23 48 87 100 87 36 7 90 37 12 61 80 67 73 88 100 100 100 100 100 100 68 98 81 100 100 100 100 100 100 100 100 100 100
100 100 17 35 96 87 83 100 100 100 100 100 100 100 81 84 68 100 98 97 94 68 89 82 97 100 96 100 100 100 63 100 71 54 91 100 100 100 100 82 61 62 68 92 64 34 23 92 78
100 67 98 87 43 90 100 100 64 37 64 100 100 100 100 100 100 100 100 91 100 100 100 61 99 100 100 99 100 100 100 100 100 100 100 100 100 100 100 100 100 100 98 100 98 36 2 1 0
100 32 66 100 100 88 89 100 24 5 82 100 74 36 95 100 100 100 100 100 100 100 100 100 100 100 100 100 100 100 100 100 100 100 100 100 100 100 100 10 1 0 0 0 0 0 0 0 0
86 86 100 100 100 98 20 9 96 5 5 100 64 5 47 98 99 100 100 100 100 100 100 100 100 97 52 19 7 25 99 100 100 100 95 5 3 0 0 2 0 0 0 0 0 1 5 4 3
5 36 97 100 100 88 5 5 7 4 5 5 4 1 0 0 1 4 12 59 99 77 94 89 57 24 87 100 100 100 79 50 1 0 0 0 0 0 0 0 0 0 0 0 0 0 0 0 0
97 46 16 78 61 40 5 0 26 5 5 0 1 0 0 0 0 2 3 5 50 54 5 1 4 2 3 0 0 0 0 0 0 0 0 0 0 0 0 0 0 0 0 0 0 0 0 0 0
80 100 100 94 67 91 31 0 0 0 0 5 1 0 0 0 0 0 3 0 0 25 85 80 43 7 2 2 0 0 0 0 0 0 0 0 0 0 0 0 0 0 0 0 0 0 0 0 0
99 100 100 99 60 31 2 2 0 5 0 0 0 0 0 0 0 1 14 96 99 96 98 43 54 98 39 5 5 0 0 0 0 0 0 0 0 0 0 0 0 0 0 0 0 0 0 0 0
100 100 94 100 70 71 5 3 0 1 1 0 2 2 2 12 26 42 93 100 73 17 82 100 100 79 36 5 2 2 0 1 1 0 0 0 0 0 0 0 0 0 0 0 0 0 0 0 0
100 100 100 93 48 18 3 0 0 0 0 38 72 15 5 7 82 96 100 100 99 100 100 100 84 88 12 5 4 2 1 0 0 0 0 0 0 0 0 0 0 0 0 0 0 0 0 0 1
100 100 100 98 99 100 33 0 3 4 45 100 100 92 96 100 100 100 100 100 100 100 100 17 5 5 5 5 2 0 0 0 0 0 0 0 0 0 0 0 0 0 0 0 0 0 0 0 0

GFSSGP_prec_cloud_081.txt.gz
Cloud_Cover
0 0 0 0 0 5 4 4 0 5 12 8 53 99 89 10 65 100 100 100 100 100 89 100 100 83 13 4 4 5 5 5 5 1 0 0 0 0 2 37 86 99 99 18 23 2 18 12 0
0 0 0 4 2 0 4 5 5 5 5 70 5 11 92 26 5 56 100 100 100 100 100 100 100 94 6 6 5 5 28 6 5 5 1 0 0 2 5 1 0 2 2 53 9 2 22 7 4
10 0 0 3 5 2 2 5 5 5 5 5 5 5 12 71 8 9 71 100 100 100 100 100 100 98 76 66 11 16 21 80 95 36 6 4 4 41 6 6 0 0 0 0 0 0 0 0 0
98 14 2 0 62 98 3 5 5 34 5 0 2 5 7 5 10 13 26 100 98 100 100 100 100 100 100 84 27 44 55 96 100 100 87 85 73 89 33 75 97 45 4 0 0 0 0 0 0
6 5 13 6 66 4 3 5 0 0 5 4 0 1 4 19 74 8 52 95 94 90 100 100 100 100 100 100 100 100 100 100 100 100 100 100 33 61 52 20 97 89 9 0 0 0 0 0 0
14 5 28 7 16 3 0 4 2 0 0 5 5 5 5 5 30 100 76 84 98 100 100 100 100 100 100 100 100 100 100 100 100 100 100 100 98 63 76 32 5 1 5 3 4 5 0 0 0
8 5 23 74 5 78 7 2 1 2 2 8 5 11 8 5 5 38 100 100 100 100 96 93 100 100 100 100 100 100 100 100 100 100 100 96 55 47 9 35 5 5 5 5 5 5 0 0 0
5 5 5 21 86 22 36 54 5 5 5 5 9 5 66 47 10 5 24 86 100 100 100 100 100 100 100 100 100 100 100 100 100 100 100 100 98 83 50 5 5 5 5 5 5 5 0 5 5
5 4 5 5 5 74 5 87 26 11 62 100 97 91 85 100 86 42 32 80 100 100 100 100 100 99 98 100 100 100 100 100 100 86 65 67 59 51 46 26 5 5 5 4 0 2 17 91 10
0 2 5 2 5 5 42 33 28 66 100 99 100 100 100 100 100 98 89 100 98 48 61 100 59 30 13 5 6 14 21 10 5 10 25 50 55 44 8 5 5 4 0 0 4 69 98 53 5
0 0 4 1 5 5 7 100 22 85 99 97 100 100 100 100 100 100 100 38 11 15 58 50 63 19 5 5 5 19 5 5 5 5 5 6 5 5 4 4 0 0 2 5 44 88 62 5 5
0 5 17 3 3 38 64 25 100 31 96 96 73 100 100 100 99 100 87 10 14 26 56 45 39 38 74 52 23 92 21 5 5 5 5 5 4 0 2 4 5 5 37 78 96 86 8 13 5
2 5 31 14 5 8 62 26 5 98 82 100 97 100 100 100 100 100 95 44 11 17 40 43 11 8 26 31 100 80 5 42 40 7 5 5 5 6 43 84 67 97 100 100 99 46 29 34 21
4 41 18 8 5 41 23 5 30 92 100 96 100 100 100 100 100 100 100 100 100 55 22 25 46 5 13 96 100 36 17 10 5 10 40 56 72 100 100 100 100 100 100 100 100 94 100 100 100
5 5 5 86 85 5 90 95 60 99 69 96 100 96 100 99 94 100 100 100 100 100 100 100 100 100 58 87 98 24 17 49 78 97 96 100 90 100 100 100 75 100 100 99 100 98 100 81 80
100 31 5 36 100 96 9 94 100 100 100 77 89 100 100 100 97 100 100 100 100 100 98 100 100 100 99 100 93 99 91 95 81 72 73 72 100 100 100 100 100 97 100 100 100 41 100 82 76
86 5 61 56 100 100 100 53 99 100 100 100 100 100 100 100 95 98 97 98 79 95 89 96 58 81 85 13 63 94 99 100 100 100 100 98 36 26 91 100 100 100 75 100 100 100 99 100 100
2 5 12 17 100 100 100 100 96 80 100 100 100 91 100 100 100 100 100 87 65 71 98 92 95 94 92 98 100 98 95 99 100 100 51 100 100 100 100 100 100 100 100 78 100 98 90 100 100
21 13 5 28 74 100 100 100 100 100 100 100 100 100 100 56 78 48 100 5 12 91 71 62 39 81 43 49 35 5 5 5 22 75 79 67 74 40 45 23 5 5 67 100 100 100 100 100 100
16 99 80 15 99 100 100 100 100 100 100 100 100 100 100 100 100 100 100 21 50 5 6 32 37 82 66 87 80 78 26 32 66 27 4 55 100 100 100 79 86 84 32 15 21 5 5 5 1
33 44 100 100 100 100 100 100 100 100 100 100 100 100 100 100 100 100 100 100 61 17 22 56 14 5 5 12 28 52 88 100 100 100 100 88 97 74 85 100 97 5 7 79 4 0 0 0 0
9 68 100 100 100 100 100 82 100 100 100 100 100 52 94 100 100 100 100 100 100 100 100 100 100 100 100 100 100 100 100 100 98 61 82 64 81 84 93 92 94 99 33 0 0 0 0 0 0
5 5 9 59 100 100 100 98 100 100 100 100 84 5 5 38 51 66 53 76 39 95 100 100 100 100 100 98 99 98 98 71 71 40 5 0 0 0 0 0 0 0 0 0 0 0 0 0 0
5 5 5 84 100 100 100 100 100 100 100 100 36 5 5 5 5 5 5 5 5 5 5 5 5 5 5 4 0 2 5 4 5 5 5 3 5 4 0 0 0 0 0 0 0 0 0 0 0
33 53 82 64 71 100 100 100 100 100 100 100 100 69 5 5 5 5 3 3 3 1 0 0 1 4 5 23 5 34 5 5 5 5 5 5 4 2 0 0 0 0 0 0 0 0 0 0 0
1 22 16 34 99 100 100 100 100 100 100 100 98 26 5 5 5 5 5 5 5 3 0 1 1 4 14 25 5 8 46 24 6 40 25 5 5 1 5 2 0 0 0 0 0 0 0 0 0
6 17 75 45 50 64 40 10 79 100 100 100 64 57 48 5 5 5 5 0 0 0 5 5 45 74 10 47 46 47 30 55 20 5 2 5 3 0 0 0 0 0 0 0 0 0 0 0 0
84 89 67 100 88 30 67 42 85 100 98 16 20 100 91 30 5 6 61 67 17 6 7 76 59 66 94 99 83 42 21 4 4 1 0 0 0 0 0 0 0 0 0 0 0 0 0 0 0
100 100 99 100 99 62 30 99 100 100 27 5 5 5 5 5 30 97 76 26 88 83 100 100 100 96 94 8 4 5 5 1 3 4 5 0 0 0 0 0 0 0 0 0 0 0 0 0 0
59 100 100 99 84 19 65 34 100 92 79 55 6 5 5 5 89 100 95 86 100 100 100 100 93 7 5 33 6 5 5 5 2 0 5 5 5 0 0 0 0 0 0 0 0 0 0 0 0

GFSSGP_prec_cloud_084.txt.gz
Cloud_Cover
0 0 0 0 0 0 0 0 0 1 4 5 100 68 7 5 77 96 94 100 100 100 100 100 100 100 100 100 100 60 40 5 5 5 1 5 5 3 88 95 85 100 13 19 28 100 100 100 0
0 0 0 0 0 0 0 0 2 2 4 4 12 100 88 51 36 70 60 100 100 100 100 100 100 100 100 100 100 69 23 51 6 5 5 21 15 5 11 4 4 5 55 9 5 0 0 0 0
0 0 0 0 0 0 0 4 5 5 5 5 5 5 52 26 9 10 5 25 50 92 100 100 100 100 100 100 100 99 8 24 30 5 47 77 100 100 43 8 16 54 5 5 5 0 0 0 0
0 0 3 5 5 8 0 3 5 0 0 5 5 5 5 5 5 7 37 12 96 88 100 100 100 100 100 100 100 70 100 100 100 98 98 100 100 100 100 70 6 53 6 5 5 3 0 2 0
2 1 0 17 7 23 2 3 5 0 0 0 3 3 5 6 28 5 50 46 69 72 73 99 100 92 100 100 92 100 94 46 54 98 100 92 100 100 100 100 100 8 5 5 5 5 5 5 0
0 1 0 5 7 76 7 5 5 5 0 0 2 5 10 5 14 7 5 15 100 89 86 90 100 100 100 100 94 29 39 90 100 100 100 91 100 100 100 100 93 7 5 5 5 5 0 0 0
0 0 0 5 5 67 78 14 15 5 5 4 0 0 1 5 88 100 96 88 76 100 97 100 100 100 100 100 100 100 100 100 100 100 100 100 100 100 100 100 100 16 5 5 5 5 3 0 0
0 0 0 0 5 19 89 92 23 22 23 9 7 5 1 0 14 100 100 100 55 22 87 100 100 100 100 100 100 100 100 100 100 100 100 100 100 100 100 85 5 5 5 5 4 0 0 0 0
0 0 0 3 1 10 7 55 90 15 5 87 34 23 5 20 10 64 91 90 66 21 5 21 78 100 100 100 100 100 100 99 95 89 78 70 51 11 5 5 11 5 5 4 0 0 0 0 0
0 0 0 3 5 5 23 37 5 33 5 5 87 14 79 100 100 100 100 100 100 71 40 27 77 33 80 88 96 96 73 43 26 5 5 5 6 7 5 48 29 5 5 5 0 4 5 5 8
0 0 0 0 0 5 8 8 5 5 36 39 6 60 96 100 100 100 100 100 98 60 55 65 99 44 15 18 63 29 17 18 9 6 12 31 10 5 5 5 5 5 5 5 32 40 26 31 82
4 0 5 0 0 1 5 5 93 18 37 5 5 48 100 100 100 100 100 100 100 99 85 100 99 80 96 100 100 100 100 100 64 60 68 54 18 5 5 5 5 34 36 64 100 61 100 100 14
6 5 5 5 1 0 1 76 100 94 69 15 12 90 100 100 100 100 100 100 100 80 69 100 100 48 22 100 58 66 96 79 55 45 52 19 28 7 22 54 51 29 30 94 100 96 92 61 89
99 42 100 8 5 3 2 7 89 98 5 36 5 14 100 100 100 100 100 100 100 100 97 100 95 67 99 36 27 20 8 73 68 48 60 16 12 52 79 100 85 96 85 100 100 100 100 100 100
100 100 91 80 13 62 5 5 96 100 97 94 40 5 23 100 100 100 100 100 100 100 100 94 99 97 90 39 52 74 98 76 39 84 5 78 89 84 100 100 100 98 99 100 100 100 100 100 100
100 100 100 100 100 100 74 77 94 100 100 100 100 100 98 100 100 100 100 100 100 100 100 100 100 100 100 89 100 100 96 82 82 100 100 97 54 87 92 100 100 100 100 100 100 100 100 100 100
0 85 100 100 100 100 99 30 77 100 100 100 100 100 100 100 100 100 100 100 100 100 100 100 100 100 98 100 100 100 100 100 100 100 73 61 81 87 99 100 100 100 100 78 100 55 66 98 54
0 0 0 25 99 100 27 5 100 100 100 100 100 100 100 100 100 100 100 100 100 98 100 100 98 100 100 100 100 100 78 56 79 100 94 100 96 54 32 44 91 66 82 42 36 13 6 21 4
0 0 3 17 91 100 98 62 86 100 100 100 100 100 100 100 100 100 100 100 100 74 11 70 100 99 84 53 87 100 100 100 100 99 97 66 51 6 5 7 45 29 9 68 5 65 55 48 100
3 44 4 5 26 100 100 100 100 100 100 100 100 100 100 100 100 100 100 90 23 53 32 56 98 46 36 20 46 65 22 12 41 49 10 20 4 3 12 25 94 91 16 5 1 2 0 0 0
33 98 95 63 73 100 100 99 100 100 100 100 100 100 100 100 100 100 100 100 100 95 65 93 100 97 100 100 100 100 100 91 92 79 92 100 90 62 19 5 5 5 5 2 0 0 0 0 0
38 82 99 98 99 100 100 47 89 48 100 100 100 100 100 100 100 100 100 100 100 100 100 100 100 100 100 100 100 99 70 54 14 5 4 0 0 0 3 4 4 5 3 5 4 5 0 0 0
0 0 0 23 97 94 83 34 100 100 100 100 100 100 100 100 100 100 100 98 60 70 66 74 49 30 10 7 12 5 5 0 0 0 0 5 6 37 6 5 5 5 5 2 0 0 0 0 0
1 39 83 43 99 60 100 30 100 100 100 100 100 100 100 100 100 100 100 91 61 63 71 62 36 20 9 5 1 2 3 0 0 4 5 5 35 5 5 5 5 5 4 0 0 0 0 0 0
100 100 100 82 14 33 97 51 100 100 100 100 100 100 89 62 78 93 86 80 79 54 41 41 30 6 5 5 0 1 4 5 5 5 5 5 11 22 5 5 0 0 2 1 0 0 0 0 0
100 100 100 71 24 100 100 98 100 100 100 100 100 100 93 64 52 65 74 66 59 42 9 5 5 5 10 31 88 8 5 37 81 82 44 69 26 5 5 5 5 5 4 0 5 4 0 0 0
6 23 71 96 13 94 100 100 100 100 100 100 100 100 100 100 100 100 100 100 99 58 7 65 46 48 61 22 79 100 79 98 100 96 74 7 5 9 12 5 2 0 5 5 4 0 0 0 0
1 20 87 54 92 89 94 100 100 100 100 100 100 100 100 99 85 87 100 99 44 23 69 55 97 99 92 88 100 100 100 86 13 5 10 58 49 7 1 0 0 0 5 1 0 0 0 0 0
2 5 59 85 77 96 91 95 97 98 73 20 76 85 87 95 69 16 29 32 56 68 88 100 100 100 100 100 100 98 21 5 32 91 26 2 0 2 5 1 0 0 0 0 0 0 0 0 0
98 86 39 86 100 94 100 100 100 98 59 96 100 87 48 19 47 40 58 98 100 100 100 100 100 100 100 93 19 5 38 98 6 5 0 5 5 3 0 0 0 1 4 5 1 0 0 0 0

GFSSGP_prec_cloud_087.txt.gz
Cloud_Cover
0 0 0 0 0 0 0 0 0 0 0 0 3 5 4 2 5 4 4 37 52 57 65 52 100 100 100 100 100 100 100 100 59 5 5 5 2 98 100 67 44 10 33 3 27 91 16 0 0
0 0 0 0 0 0 0 0 0 0 0 0 0 4 3 5 9 44 27 37 28 94 100 100 100 100 100 100 100 100 100 100 100 100 5 4 5 5 14 5 5 19 16 1 1 0 0 0 0
0 0 0 0 0 0 0 1 0 0 0 0 0 1 5 68 68 96 93 60 52 69 76 95 100 100 100 100 100 100 100 100 100 100 20 96 61 33 32 5 5 7 6 6 16 5 0 0 0
0 0 0 0 0 0 0 4 4 4 0 0 0 0 0 5 77 64 48 100 80 44 5 5 20 26 94 100 97 96 100 100 100 95 100 100 74 43 5 5 6 34 63 100 100 11 0 0 0
7 0 0 0 0 0 5 2 5 3 0 0 0 0 0 0 5 5 7 5 73 76 38 12 5 5 6 6 30 50 100 98 92 100 75 35 17 26 24 83 62 98 100 100 97 5 5 3 0
5 0 0 0 0 1 1 4 100 67 35 4 1 0 0 0 12 19 13 5 5 6 45 100 46 26 25 28 76 97 100 51 24 34 6 37 62 100 100 100 100 100 100 97 33 77 5 3 0
79 18 4 1 0 0 1 0 73 93 100 66 5 5 2 0 24 99 25 45 72 13 25 24 69 78 36 65 100 100 99 59 100 63 36 94 16 99 100 100 100 100 100 90 22 4 5 5 5
83 5 5 5 0 0 0 5 5 99 77 69 9 58 85 20 10 31 18 2 34 5 5 42 10 33 100 100 100 100 100 55 100 90 65 91 100 100 100 100 99 81 5 3 0 5 5 5 5
30 5 4 5 0 0 4 0 4 85 100 94 10 25 25 24 48 56 70 64 52 37 10 14 93 67 31 30 81 89 100 100 100 100 100 100 89 81 93 23 5 5 5 5 5 5 5 5 5
23 2 20 5 0 0 0 5 5 61 100 95 54 32 5 10 33 18 95 98 100 43 70 22 13 22 50 92 55 42 72 100 100 100 100 100 88 52 27 5 22 25 5 5 5 5 5 5 5
77 5 9 1 0 0 0 5 54 32 86 100 21 46 14 83 27 5 25 7 17 5 6 88 92 61 33 11 38 96 71 34 46 71 67 48 54 38 58 21 5 5 9 8 5 5 5 5 5
76 5 5 5 2 0 1 12 6 97 100 100 95 11 79 37 16 58 5 18 18 5 29 32 99 100 81 91 100 99 100 72 64 80 36 5 31 38 33 21 5 5 5 5 5 6 46 5 6
58 33 24 8 5 1 0 0 5 100 100 87 78 99 48 12 92 95 11 9 28 63 90 100 100 100 73 66 16 59 34 26 65 53 6 5 7 9 6 16 24 10 5 5 21 25 78 5 10
98 99 68 100 53 5 0 0 1 78 79 84 15 100 100 100 100 100 78 66 75 52 63 90 100 88 91 93 80 96 91 98 72 13 49 98 91 100 70 33 34 68 95 71 50 57 93 85 95
98 95 100 94 100 12 5 3 5 4 20 99 100 100 100 100 100 100 100 94 81 100 100 84 100 69 46 89 100 88 98 100 57 32 36 80 85 92 84 100 100 90 100 96 69 84 83 89 100
1 28 87 100 100 100 100 86 87 88 46 64 100 100 100 100 100 100 100 61 100 100 100 100 100 80 100 100 82 100 100 88 40 90 76 88 100 100 59 72 44 50 88 72 88 22 5 20 5
0 0 0 71 100 100 100 100 100 98 100 100 100 100 100 100 100 100 100 100 100 99 100 100 100 100 100 100 100 100 100 100 100 100 100 100 77 68 38 34 34 44 80 34 40 12 5 36 33
0 0 0 0 89 100 100 100 100 100 100 100 100 100 100 100 100 100 100 100 82 100 86 98 100 62 100 100 100 100 100 100 100 81 53 40 42 92 70 14 21 14 39 18 10 6 5 11 29
0 0 0 0 0 71 100 100 100 100 100 100 100 100 100 100 100 100 100 100 100 100 95 59 100 100 100 100 100 100 100 97 70 60 45 28 10 11 29 38 61 100 100 64 100 100 68 28 3
0 1 91 40 1 0 24 100 100 100 100 100 100 100 100 100 100 100 100 100 100 100 98 100 100 100 100 100 97 95 100 100 100 99 100 100 95 78 90 100 100 96 75 5 3 0 2 2 0
0 0 79 75 74 32 4 62 86 100 100 100 100 100 100 100 100 100 100 100 100 100 93 73 83 100 100 96 74 88 100 100 100 100 100 100 74 38 23 9 0 0 0 4 5 1 0 2 3
0 9 30 4 0 14 23 81 100 100 99 100 100 100 100 100 100 100 100 100 95 97 100 100 100 100 100 100 100 100 100 100 93 26 6 5 5 1 0 0 2 4 5 0 4 5 5 1 0
0 3 74 79 47 5 1 19 100 87 100 100 100 100 100 100 100 100 100 100 100 94 67 100 99 100 100 98 64 43 37 6 5 5 5 5 5 5 5 5 5 5 5 5 5 4 0 0 0
0 2 92 93 80 66 5 5 100 100 100 100 100 100 100 100 100 100 100 100 100 100 100 100 100 95 71 71 47 16 8 5 5 5 5 5 5 6 5 5 5 19 6 5 2 0 0 0 0
93 100 100 97 8 2 0 5 99 100 100 100 100 100 100 100 100 100 100 100 100 100 100 100 91 95 90 96 100 88 10 6 5 5 23 58 45 15 7 30 7 5 5 5 3 0 0 0 0
100 100 100 98 50 11 0 4 100 100 100 100 100 100 100 100 100 100 100 100 100 100 100 100 100 100 100 100 93 38 40 32 76 95 98 85 72 84 25 6 5 5 4 4 0 0 3 4 2
100 99 100 99 59 87 0 31 100 100 100 100 99 90 100 100 100 100 100 100 100 100 100 100 100 100 100 88 88 80 66 100 98 75 45 66 13 29 12 5 5 5 1 0 0 0 0 0 0
100 100 100 82 100 100 17 37 100 100 100 100 100 100 100 71 83 74 93 100 100 100 100 100 100 89 55 11 66 99 96 56 74 95 71 38 56 51 17 5 5 3 0 0 0 0 0 0 0
71 100 100 98 64 42 61 98 100 100 100 100 100 100 100 79 43 69 100 100 100 100 100 73 42 9 5 72 100 43 86 96 66 72 94 38 9 5 5 1 0 0 0 0 0 0 0 0 0
46 6 18 36 81 95 97 99 99 100 100 100 100 97 83 83 78 71 70 86 60 14 6 5 6 81 100 100 98 100 44 98 100 65 5 5 5 0 0 0 0 0 0 0 0 0 0 0 0

GFSSGP_prec_cloud_090.txt.gz
Cloud_Cover
0 0 0 0 0 0 3 0 0 0 4 1 3 2 5 5 8 5 9 0 0 4 36 6 8 4 6 63 97 92 100 100 100 100 100 100 60 13 2 5 34 6 5 5 0 5 3 0 0
0 0 0 0 0 5 2 0 0 0 0 0 1 0 4 2 5 5 39 22 5 1 5 25 8 6 48 56 100 65 11 6 85 100 100 100 100 100 15 86 8 5 2 5 2 0 5 9 48
2 0 0 0 2 5 5 0 0 0 0 0 0 0 0 0 4 5 5 78 14 5 4 6 22 92 93 28 100 20 5 40 75 99 95 100 100 100 100 44 5 5 5 5 5 5 12 100 100
0 0 0 0 0 0 0 2 0 5 2 0 0 0 0 0 0 4 5 5 38 52 29 41 6 12 6 10 73 38 100 100 64 6 18 55 93 100 34 55 70 18 5 9 28 90 100 100 53
0 3 0 5 0 0 0 1 2 5 2 3 4 1 0 0 0 0 1 3 3 4 4 5 5 4 5 5 5 5 11 61 31 93 14 54 31 34 92 90 10 19 74 100 100 100 99 6 35
5 18 5 5 1 4 7 5 0 4 5 2 5 5 5 1 0 0 0 0 0 2 5 0 2 5 14 40 7 8 5 42 99 56 27 12 63 24 88 14 58 98 100 100 95 47 84 100 42
5 56 100 100 100 14 42 4 0 5 1 96 100 100 56 52 5 3 0 0 5 5 24 5 4 3 5 18 43 39 16 64 100 100 100 53 71 88 94 99 100 100 100 100 100 100 40 5 5
100 63 52 53 98 96 34 89 5 3 5 5 54 100 100 100 87 5 5 0 2 5 5 56 80 6 6 26 5 40 100 97 100 100 100 100 100 100 100 100 100 100 98 37 44 14 5 5 5
100 93 100 100 100 100 93 32 10 2 1 2 20 90 99 100 74 5 5 5 1 0 0 0 33 88 54 39 29 10 5 72 90 100 100 100 100 100 100 100 100 97 87 63 10 9 17 5 5
46 80 100 100 100 100 84 10 30 5 7 0 40 5 66 97 80 44 5 5 5 5 3 0 3 2 58 39 19 45 100 22 36 58 27 45 89 96 94 84 98 66 44 84 69 76 57 70 36
96 80 100 100 100 100 98 7 31 33 5 2 45 41 23 78 84 5 5 5 5 5 5 5 6 5 87 21 30 56 6 5 39 58 51 27 54 31 19 12 19 27 31 5 59 54 62 6 11
57 57 100 100 100 100 100 99 18 65 14 3 15 100 100 100 93 53 5 5 5 5 5 34 66 56 44 24 67 58 100 100 100 100 100 69 20 16 5 6 14 24 35 29 59 24 5 5 6
100 100 100 100 100 100 100 100 6 33 98 6 6 100 100 100 100 73 55 5 5 5 5 5 46 56 96 100 92 32 97 100 95 44 47 30 29 35 88 93 91 77 100 97 84 67 89 99 98
100 100 100 100 100 100 100 100 7 5 82 6 22 100 100 100 100 100 7 13 5 5 5 28 93 52 49 80 100 100 100 100 70 47 41 24 32 50 100 97 98 84 72 83 52 62 57 72 60
51 94 100 100 100 100 100 76 5 8 45 7 100 100 100 100 100 100 56 6 90 14 46 80 78 74 70 100 90 100 100 97 84 94 90 52 23 24 39 48 85 56 26 64 90 43 83 80 51
0 0 20 100 100 100 100 30 67 88 61 50 28 100 100 100 100 100 53 63 83 80 72 68 77 80 62 69 100 100 100 87 100 100 100 100 100 100 100 100 100 100 92 47 53 64 95 44 35
0 0 0 0 40 100 100 100 100 88 92 100 94 92 100 100 100 100 98 100 94 84 77 44 98 78 96 100 100 100 100 100 100 94 89 100 100 100 100 100 98 64 15 6 7 30 22 5 5
0 0 0 0 0 0 61 100 100 100 100 100 100 100 100 100 100 100 100 100 100 98 100 100 100 100 82 100 100 100 100 100 100 100 100 100 100 100 100 66 44 43 69 7 9 7 16 81 98
0 0 0 2 4 4 0 6 100 100 100 100 100 100 100 100 89 100 100 100 100 100 100 100 100 96 94 100 100 100 100 100 100 100 100 100 100 100 99 91 8 24 89 100 68 34 5 5 5
0 0 0 5 52 17 5 5 1 93 100 100 100 100 100 100 100 100 100 100 100 100 100 100 100 96 100 100 100 100 100 100 100 100 90 90 75 77 76 100 100 100 100 91 17 4 0 0 0
5 5 0 17 94 2 2 5 0 0 100 100 100 100 100 100 100 100 100 100 100 100 100 100 95 100 100 100 100 100 100 100 100 97 100 88 100 100 100 64 5 5 5 2 0 0 0 0 1
5 0 0 0 62 10 0 0 5 0 79 100 100 100 100 100 100 100 100 100 100 100 83 73 100 95 100 100 100 100 100 100 100 100 100 100 100 74 5 5 3 0 0 0 1 5 4 1 0
95 1 0 2 16 100 85 4 99 0 5 96 100 100 100 100 100 100 100 100 100 100 91 54 51 98 100 100 100 100 100 100 98 53 50 24 5 5 4 3 0 0 4 5 5 0 5 5 4
30 21 100 98 57 37 84 4 31 5 6 100 100 100 100 100 100 100 100 100 100 100 85 100 100 100 100 89 100 100 88 57 42 17 36 6 5 5 5 0 4 5 5 3 4 5 8 13 5
2 56 100 100 100 94 95 47 94 0 2 55 100 100 100 100 100 100 100 100 100 100 100 100 100 100 100 100 98 77 94 81 48 65 71 47 5 5 5 5 5 4 5 5 26 44 13 5 5
100 100 100 100 100 100 100 49 4 0 0 8 100 100 99 100 100 100 100 100 100 100 100 100 93 100 100 100 91 81 98 93 99 97 52 6 5 5 5 5 5 5 62 60 15 5 5 3 0
100 100 100 100 100 99 53 6 6 0 0 5 96 98 94 99 100 100 100 98 79 94 99 96 93 100 100 100 100 100 100 92 99 48 7 48 8 6 7 48 98 78 17 5 0 0 0 0 0
100 100 100 100 100 100 74 95 18 5 0 5 94 100 100 100 100 100 100 100 92 99 100 100 100 100 100 100 100 86 94 77 34 42 33 67 94 90 100 63 12 3 0 0 0 0 0 0 0
100 100 100 96 100 100 100 99 9 5 86 68 83 100 100 100 100 100 100 97 97 99 100 100 100 100 100 100 40 24 11 44 14 47 59 97 98 23 5 1 0 0 0 0 0 0 0 0 0
100 100 100 100 100 100 100 100 100 84 5 25 94 100 100 100 100 100 100 100 100 100 100 94 64 14 5 5 6 90 61 88 97 100 67 19 5 2 5 0 0 0 0 0 0 0 0 0 0

GFSSGP_prec_cloud_093.txt.gz
Cloud_Cover
0 2 3 16 0 0 3 5 5 2 0 0 0 3 3 4 5 11 5 5 5 4 3 0 2 6 8 8 28 0 0 94 100 98 100 100 100 100 100 100 93 5 12 5 0 0 0 0 0
0 0 0 7 0 5 5 5 5 3 0 0 0 0 0 5 3 5 15 20 5 5 5 1 0 5 9 20 13 8 51 100 100 49 50 92 100 100 100 100 100 100 50 0 0 0 0 3 2
2 0 2 0 4 5 5 57 5 4 0 0 0 0 0 0 0 0 1 9 5 5 5 4 2 0 0 5 6 5 5 66 56 5 5 66 100 100 100 100 93 9 4 2 0 0 2 10 5
68 7 3 80 9 5 5 45 7 0 1 0 0 0 0 0 0 0 0 0 0 3 8 29 8 48 5 5 6 6 5 5 77 74 98 55 65 68 38 51 6 12 5 0 2 5 5 99 27
87 100 30 95 57 18 89 48 3 2 5 2 0 0 0 0 0 0 0 0 0 0 0 1 14 81 94 99 51 5 5 5 23 14 37 33 70 37 83 5 11 16 18 26 7 48 100 99 77
83 92 100 100 100 28 76 79 3 0 4 5 0 0 0 5 5 2 0 0 0 0 0 0 0 2 16 34 5 5 5 10 5 5 24 18 92 100 100 38 5 46 99 100 98 87 93 98 100
100 100 100 100 82 100 100 92 5 5 6 4 5 2 0 0 5 5 5 0 0 0 0 0 4 5 4 0 48 4 26 9 61 80 30 91 100 100 100 100 100 100 100 100 73 70 52 57 13
100 100 100 100 98 98 100 83 87 5 7 42 31 4 1 2 95 100 72 9 5 0 0 0 0 4 5 5 6 15 16 21 23 11 96 98 47 100 100 100 100 100 100 100 100 100 100 100 100
97 10 100 96 52 100 100 90 100 96 62 62 5 5 1 0 7 94 100 100 98 15 5 4 0 3 23 23 58 22 9 24 5 5 6 19 86 100 100 100 100 100 100 100 100 100 100 62 5
100 80 100 100 100 100 100 90 68 100 30 100 100 7 5 2 5 6 26 100 100 100 61 27 5 8 5 86 5 70 46 5 8 3 5 12 47 10 56 27 12 12 29 84 75 57 16 5 14
100 89 100 100 68 100 100 100 9 100 100 100 100 79 74 95 5 5 5 12 100 100 99 84 55 40 78 42 42 28 98 5 5 5 5 5 5 5 13 80 93 91 37 28 24 27 17 24 7
78 100 100 100 100 100 100 100 100 100 100 100 100 46 87 81 5 18 13 5 24 84 49 15 38 14 33 60 52 96 20 5 7 25 33 54 82 26 100 100 100 100 100 94 81 83 32 77 71
100 100 100 100 100 100 100 100 100 100 100 100 100 100 94 89 25 5 92 7 16 38 25 37 85 88 100 100 100 97 100 100 99 46 24 54 88 100 72 68 43 72 75 37 30 59 84 100 100
98 100 100 100 100 100 100 100 100 100 100 100 100 100 100 99 99 37 91 100 100 100 70 5 5 84 100 100 100 100 55 88 34 86 100 100 100 100 100 92 74 40 21 6 42 65 90 69 64
100 100 100 100 100 100 100 100 78 100 100 100 100 100 100 100 89 97 100 100 100 100 54 5 5 32 100 100 86 33 21 53 74 66 95 94 99 100 100 100 100 100 98 88 100 100 100 100 93
8 94 100 100 100 100 100 100 100 100 100 100 100 100 100 100 66 94 100 100 100 100 100 37 6 8 96 83 65 98 99 100 100 98 100 100 100 100 98 100 100 100 100 100 100 100 100 100 63
0 0 0 85 100 85 100 87 100 100 100 100 100 100 100 100 100 94 80 100 100 100 100 46 88 64 32 93 99 100 100 100 100 100 100 100 100 92 99 100 98 100 100 100 100 100 99 72 74
0 0 0 0 16 98 85 100 100 100 92 100 100 100 100 100 91 70 99 100 100 99 100 74 96 97 77 100 100 100 100 100 100 100 100 100 100 100 100 100 100 100 100 100 100 100 64 90 63
0 0 0 0 0 0 5 90 100 100 100 100 100 100 100 100 100 20 91 68 100 86 100 100 100 93 100 100 100 100 100 100 100 100 100 100 100 100 100 97 96 77 99 100 80 94 97 31 87
0 0 0 0 0 2 9 5 5 80 100 100 100 100 100 100 100 98 24 70 100 100 100 100 100 100 99 100 100 94 72 80 100 100 100 100 100 100 100 17 62 92 51 69 40 9 80 23 11
76 9 5 4 0 2 65 33 5 16 74 100 100 100 100 100 100 100 100 100 100 100 100 100 100 100 100 100 100 42 46 72 100 100 100 100 100 49 58 100 100 100 97 90 38 29 10 1 0
100 99 69 5 5 9 98 99 96 98 96 16 82 100 100 100 100 100 100 100 100 100 100 100 100 100 100 100 100 100 99 97 100 99 53 60 76 77 100 100 100 100 14 5 3 4 3 2 0
63 100 60 100 12 100 72 97 5 67 94 31 0 60 100 100 100 100 100 100 100 100 100 100 100 100 100 100 100 100 90 92 99 98 74 41 20 33 70 46 5 5 5 5 1 5 5 5 4
22 91 100 95 76 100 100 100 29 83 15 9 5 0 32 100 100 100 100 100 100 100 100 100 100 100 100 100 100 100 100 100 93 81 92 100 100 82 16 16 5 5 5 5 5 5 5 4 5
81 100 100 100 81 100 100 100 100 64 100 68 64 44 0 89 100 100 100 100 100 100 100 100 100 100 100 100 100 100 100 100 100 100 56 15 23 23 5 5 5 5 5 5 5 5 5 5 5
100 100 100 100 73 68 100 100 100 95 96 0 4 0 0 3 100 100 100 100 100 100 100 100 100 100 100 100 100 100 100 100 100 44 47 5 11 34 24 37 15 34 8 5 5 5 5 0 0
100 100 100 100 100 100 100 97 100 44 14 0 0 0 0 0 74 100 100 100 100 100 100 100 100 100 100 100 100 100 100 100 83 58 52 79 58 65 29 42 6 5 5 3 2 0 0 0 0
100 100 100 100 100 100 100 100 99 17 0 5 4 0 1 5 93 100 100 100 100 100 100 100 100 100 100 100 100 100 100 89 78 82 96 52 22 5 5 5 5 1 0 0 0 0 0 0 0
100 82 100 100 100 100 100 100 38 96 4 1 34 4 2 12 9 93 100 100 100 100 100 100 100 100 74 100 100 100 89 100 61 28 13 10 5 17 4 2 0 0 0 0 0 0 0 0 0
95 100 100 100 100 100 100 98 36 41 100 100 100 100 100 55 40 100 100 100 100 100 100 100 100 100 100 100 100 86 64 41 14 41 23 21 2 4 0 0 0 0 0 0 0 0 0 0 0

GFSSGP_prec_cloud_096.txt.gz
Cloud_Cover
90 51 0 41 4 0 0 1 100 5 0 0 0 0 0 0 0 17 5 2 0 0 0 0 5 5 16 24 4 0 31 4 0 4 100 100 100 92 100 100 100 100 100 100 100 79 2 0 0
2 2 6 1 0 3 0 26 28 5 16 0 0 0 0 0 0 4 0 0 1 0 1 0 0 9 31 24 0 0 0 0 2 5 51 100 61 63 97 88 33 26 5 5 22 5 2 0 0
5 20 99 72 56 5 2 94 100 10 3 0 0 0 0 0 0 1 0 0 0 0 1 3 5 6 9 1 83 79 5 5 5 5 5 67 6 5 30 42 5 5 12 3 1 0 10 7 0
98 89 100 100 100 99 5 27 100 8 0 0 0 0 0 0 0 0 0 0 0 0 0 0 1 5 5 5 5 3 0 5 5 35 75 32 100 92 24 40 7 5 5 5 5 5 1 10 5
100 71 98 100 100 100 96 8 96 73 38 0 0 0 0 0 0 0 0 0 0 0 0 0 0 0 1 5 7 45 30 46 5 56 38 52 100 82 21 29 25 14 5 5 5 11 87 20 9
100 100 100 100 100 99 17 74 78 100 100 51 35 0 0 0 0 0 0 0 0 0 0 0 0 0 0 0 2 71 20 5 5 5 15 9 18 36 85 90 91 94 90 49 42 93 91 100 59
100 100 98 100 100 100 70 93 100 100 100 100 8 2 0 0 0 0 0 0 0 0 0 0 0 0 0 0 0 21 15 7 1 10 5 5 4 11 46 23 70 30 96 100 100 93 99 94 94
100 100 99 100 100 100 100 99 100 100 100 100 100 7 1 0 0 3 0 0 0 6 2 3 0 0 0 0 1 18 10 5 29 5 3 0 4 5 5 89 100 99 97 100 100 100 100 100 100
100 100 100 100 100 100 100 100 99 100 100 100 100 72 70 5 1 2 5 0 0 37 95 94 25 3 0 0 1 2 13 12 5 39 19 5 5 5 5 5 13 5 66 100 91 78 65 68 60
100 100 100 100 100 100 100 100 100 64 100 100 100 100 100 68 15 5 5 0 0 1 100 100 100 100 39 10 4 2 0 0 3 5 54 5 5 5 0 0 0 2 10 6 5 5 5 5 14
100 86 100 100 100 100 100 100 100 31 98 98 100 87 100 44 100 98 80 51 4 2 28 14 93 100 100 87 66 59 32 17 5 5 5 5 5 4 4 2 0 4 4 5 6 89 84 51 59
100 100 100 100 100 100 55 97 100 94 100 100 100 100 100 77 100 100 100 69 5 5 47 2 91 73 98 100 100 96 96 82 90 98 25 11 5 6 5 5 23 68 100 77 99 100 100 100 100
100 100 100 100 100 100 100 91 100 62 100 100 100 100 100 100 100 100 100 100 5 5 4 12 58 59 60 97 7 94 11 26 9 24 76 81 99 99 91 92 82 98 98 100 100 60 29 9 20
100 100 100 100 100 100 100 100 100 98 100 98 100 100 100 100 100 100 100 100 5 5 5 54 84 95 88 100 57 83 21 5 18 14 8 5 24 6 21 74 98 100 100 100 100 100 100 100 100
0 94 100 100 100 100 100 100 100 100 94 100 100 100 100 100 100 100 99 100 5 38 5 35 97 100 100 84 100 100 38 77 15 17 25 7 6 5 66 53 68 97 100 100 100 100 72 85 86
0 0 71 100 100 100 100 84 100 100 100 100 100 100 100 100 100 100 100 100 100 7 5 100 100 90 100 100 100 21 74 64 100 100 100 100 96 99 50 84 82 88 94 100 98 93 98 100 99
0 0 0 0 99 100 78 100 100 100 100 100 99 100 100 100 100 100 100 100 96 45 100 100 100 100 100 50 75 100 100 100 95 86 94 98 99 100 100 100 100 100 100 100 100 100 100 100 100
27 1 0 0 0 30 99 34 100 100 100 100 100 100 100 100 100 100 100 89 100 100 100 100 100 100 74 98 80 100 100 100 100 97 90 99 100 98 100 98 99 78 41 94 100 100 100 100 90
60 5 4 0 0 0 0 86 100 100 100 100 100 100 100 100 100 100 100 100 100 100 100 100 99 100 95 76 89 100 100 100 100 100 100 100 100 100 100 100 77 100 100 100 100 100 36 6 33
39 16 5 0 0 0 0 0 97 100 100 100 100 100 100 100 100 100 100 100 78 100 100 100 94 100 100 100 100 100 100 100 100 100 100 100 100 86 99 98 44 89 40 71 81 71 8 73 100
17 61 5 21 0 3 0 0 0 73 100 100 100 100 100 100 100 100 100 98 100 100 90 69 99 100 99 100 100 100 100 100 100 100 96 83 100 90 76 13 34 10 44 9 19 20 99 100 100
20 50 15 53 98 15 0 0 0 0 71 12 100 100 100 100 100 100 98 100 100 73 100 100 100 100 100 100 100 100 100 100 100 100 100 89 42 63 94 100 53 8 85 32 9 74 100 88 23
34 91 96 94 84 78 0 85 0 2 47 46 58 50 100 100 100 100 100 100 82 100 100 100 100 100 100 100 100 100 100 100 100 100 100 100 100 99 72 58 100 99 100 59 100 92 5 5 5
100 100 100 100 65 31 0 25 3 86 51 84 43 32 26 25 100 100 100 100 100 100 91 98 100 100 100 100 100 100 100 100 100 100 100 100 94 100 100 100 100 23 58 89 16 5 5 2 5
100 100 100 100 100 87 82 68 100 24 16 100 4 98 100 0 4 100 100 100 100 100 100 100 100 100 100 100 100 100 100 100 84 83 87 100 100 100 100 100 100 75 12 5 5 5 5 5 4
100 100 100 100 100 100 100 100 100 100 85 100 83 96 54 4 0 0 5 82 100 100 100 100 100 100 100 100 100 100 100 100 100 100 100 100 100 57 11 7 5 6 5 5 5 5 2 0 0
100 100 100 100 100 100 100 100 100 100 100 100 98 98 39 12 1 0 1 5 99 100 100 100 100 100 100 100 100 100 100 100 100 100 100 100 91 36 60 32 43 27 5 5 0 0 0 0 0
100 100 100 100 100 100 100 100 98 100 100 100 100 76 5 4 0 1 1 4 5 100 100 100 100 100 100 100 100 100 100 99 100 100 100 95 8 64 52 5 5 4 0 0 0 0 0 0 0
39 100 100 100 100 98 100 100 100 100 100 100 73 21 0 0 1 3 2 4 5 22 100 100 100 100 100 86 98 94 97 100 100 100 91 100 96 28 5 5 1 0 0 0 0 0 0 0 0
65 90 100 100 100 100 84 17 96 100 100 30 6 98 2 90 87 73 51 5 5 19 82 100 100 100 100 100 100 84 100 100 100 98 21 5 5 5 1 0 0 0 0 0 0 0 0 0 0